GFSMA_prec_precacc_015.txt.gz
Total_Precipitation_Accumulation
0.00 0.00 0.00 0.00 0.00 0.00 0.00 0.00 0.00 0.00 0.00 0.00 0.00 0.00 0.00 0.00 0.00 0.00 0.00 0.00 0.00 0.00 0.00 0.00 0.00 0.00 0.00 0.00 0.01 0.01 0.00 0.00 0.00 0.00 0.00 0.00 0.00 0.00 0.00 0.00 0.00 0.00 0.00
0.00 0.00 0.00 0.00 0.00 0.00 0.00 0.00 0.00 0.00 0.00 0.00 0.00 0.00 0.00 0.00 0.00 0.00 0.00 0.00 0.00 0.00 0.00 0.00 0.00 0.00 0.00 0.00 0.01 0.01 0.01 0.01 0.01 0.00 0.00 0.00 0.00 0.00 0.00 0.00 0.00 0.00 0.00
0.00 0.00 0.00 0.00 0.00 0.00 0.00 0.00 0.00 0.00 0.00 0.00 0.00 0.00 0.00 0.00 0.00 0.00 0.00 0.00 0.00 0.00 0.00 0.00 0.00 0.00 0.00 0.00 0.00 0.00 0.02 0.03 0.04 0.04 0.03 0.02 0.01 0.00 0.00 0.00 0.00 0.00 0.00
0.00 0.00 0.00 0.00 0.00 0.00 0.00 0.00 0.00 0.00 0.00 0.00 0.00 0.00 0.00 0.00 0.00 0.00 0.00 0.00 0.00 0.00 0.00 0.00 0.00 0.00 0.00 0.00 0.00 0.00 0.00 0.00 0.01 0.03 0.03 0.03 0.03 0.02 0.02 0.02 0.02 0.02 0.01
0.00 0.00 0.00 0.00 0.00 0.00 0.00 0.00 0.00 0.00 0.00 0.00 0.00 0.00 0.00 0.00 0.00 0.00 0.00 0.00 0.00 0.00 0.00 0.00 0.00 0.00 0.00 0.00 0.00 0.00 0.00 0.00 0.00 0.00 0.00 0.01 0.01 0.02 0.03 0.03 0.03 0.03 0.03
0.00 0.00 0.00 0.00 0.00 0.00 0.00 0.00 0.00 0.00 0.00 0.00 0.00 0.00 0.00 0.00 0.00 0.00 0.00 0.00 0.00 0.00 0.00 0.00 0.00 0.00 0.00 0.00 0.00 0.00 0.00 0.00 0.00 0.00 0.00 0.00 0.00 0.01 0.02 0.03 0.03 0.04 0.06
0.00 0.00 0.00 0.00 0.00 0.00 0.00 0.00 0.00 0.00 0.00 0.00 0.00 0.00 0.00 0.00 0.00 0.00 0.00 0.00 0.00 0.00 0.00 0.00 0.00 0.00 0.00 0.00 0.00 0.00 0.00 0.00 0.00 0.00 0.00 0.00 0.00 0.00 0.01 0.02 0.03 0.05 0.08
0.00 0.00 0.00 0.00 0.00 0.00 0.00 0.00 0.00 0.00 0.00 0.00 0.01 0.03 0.02 0.00 0.00 0.00 0.00 0.00 0.00 0.00 0.00 0.00 0.00 0.00 0.00 0.00 0.00 0.00 0.00 0.00 0.00 0.00 0.00 0.00 0.00 0.00 0.00 0.01 0.03 0.06 0.07
0.00 0.00 0.00 0.00 0.00 0.00 0.00 0.00 0.00 0.00 0.01 0.01 0.01 0.05 0.08 0.04 0.02 0.00 0.00 0.00 0.00 0.00 0.00 0.00 0.00 0.00 0.00 0.00 0.00 0.00 0.00 0.00 0.00 0.00 0.00 0.00 0.00 0.00 0.01 0.03 0.04 0.06 0.09
0.00 0.00 0.00 0.00 0.00 0.00 0.00 0.00 0.01 0.01 0.03 0.03 0.02 0.02 0.05 0.06 0.10 0.08 0.01 0.01 0.00 0.00 0.00 0.00 0.00 0.00 0.00 0.00 0.00 0.00 0.00 0.00 0.02 0.02 0.00 0.00 0.02 0.02 0.04 0.07 0.10 0.12 0.12
0.00 0.00 0.00 0.00 0.00 0.00 0.01 0.01 0.02 0.04 0.04 0.04 0.04 0.04 0.06 0.07 0.09 0.14 0.10 0.02 0.01 0.00 0.00 0.00 0.00 0.00 0.00 0.00 0.00 0.00 0.01 0.02 0.03 0.04 0.02 0.03 0.05 0.07 0.13 0.18 0.19 0.18 0.16
0.00 0.00 0.00 0.00 0.00 0.00 0.01 0.02 0.03 0.04 0.08 0.11 0.10 0.09 0.10 0.13 0.09 0.11 0.11 0.07 0.04 0.01 0.01 0.00 0.00 0.00 0.00 0.00 0.01 0.01 0.01 0.01 0.04 0.04 0.08 0.15 0.16 0.16 0.20 0.24 0.26 0.24 0.22
0.00 0.00 0.00 0.00 0.00 0.00 0.01 0.01 0.03 0.05 0.07 0.11 0.13 0.12 0.12 0.11 0.11 0.14 0.18 0.13 0.12 0.05 0.05 0.02 0.01 0.02 0.02 0.02 0.02 0.03 0.02 0.02 0.03 0.03 0.05 0.15 0.24 0.27 0.23 0.21 0.26 0.29 0.31
0.00 0.00 0.00 0.00 0.00 0.00 0.00 0.01 0.03 0.06 0.08 0.10 0.12 0.13 0.15 0.12 0.14 0.15 0.17 0.20 0.14 0.05 0.03 0.02 0.00 0.01 0.03 0.04 0.03 0.03 0.02 0.00 0.01 0.02 0.02 0.03 0.10 0.16 0.20 0.23 0.29 0.31 0.32
0.00 0.00 0.00 0.00 0.00 0.00 0.00 0.00 0.01 0.02 0.04 0.06 0.08 0.10 0.15 0.13 0.14 0.13 0.15 0.22 0.28 0.17 0.05 0.02 0.01 0.01 0.03 0.03 0.02 0.04 0.04 0.02 0.03 0.04 0.05 0.04 0.04 0.08 0.13 0.17 0.20 0.27 0.35
0.00 0.00 0.00 0.00 0.00 0.00 0.00 0.00 0.00 0.00 0.01 0.02 0.04 0.06 0.08 0.10 0.12 0.14 0.14 0.15 0.21 0.29 0.16 0.02 0.02 0.04 0.05 0.03 0.02 0.06 0.07 0.11 0.11 0.10 0.09 0.08 0.07 0.10 0.12 0.14 0.18 0.21 0.26
0.00 0.00 0.00 0.00 0.00 0.00 0.00 0.00 0.00 0.00 0.00 0.00 0.02 0.04 0.06 0.08 0.09 0.08 0.09 0.10 0.11 0.19 0.23 0.03 0.04 0.05 0.06 0.03 0.04 0.07 0.06 0.05 0.05 0.09 0.11 0.12 0.14 0.14 0.15 0.15 0.16 0.19 0.22
0.00 0.00 0.00 0.00 0.00 0.00 0.00 0.00 0.00 0.00 0.00 0.00 0.00 0.01 0.02 0.03 0.05 0.09 0.11 0.10 0.12 0.14 0.22 0.12 0.02 0.03 0.03 0.03 0.03 0.06 0.07 0.10 0.09 0.08 0.10 0.12 0.15 0.18 0.19 0.17 0.15 0.16 0.17
0.00 0.00 0.00 0.00 0.00 0.00 0.00 0.00 0.00 0.00 0.00 0.00 0.00 0.00 0.00 0.00 0.00 0.02 0.06 0.09 0.11 0.15 0.21 0.25 0.12 0.07 0.07 0.06 0.06 0.08 0.11 0.11 0.12 0.15 0.18 0.19 0.22 0.22 0.23 0.24 0.27 0.29 0.31
0.00 0.00 0.00 0.00 0.00 0.00 0.00 0.00 0.00 0.00 0.00 0.00 0.00 0.00 0.00 0.00 0.00 0.00 0.03 0.09 0.13 0.16 0.19 0.20 0.15 0.09 0.08 0.08 0.11 0.11 0.11 0.11 0.13 0.16 0.22 0.27 0.35 0.42 0.44 0.46 0.45 0.40 0.37
0.00 0.00 0.00 0.00 0.00 0.00 0.00 0.00 0.00 0.00 0.00 0.00 0.00 0.00 0.00 0.00 0.00 0.00 0.04 0.06 0.13 0.16 0.18 0.20 0.20 0.19 0.23 0.27 0.25 0.25 0.35 0.36 0.38 0.35 0.33 0.34 0.40 0.44 0.42 0.44 0.47 0.45 0.46
0.00 0.00 0.00 0.00 0.00 0.00 0.00 0.00 0.00 0.00 0.00 0.00 0.00 0.00 0.00 0.00 0.00 0.01 0.04 0.06 0.08 0.12 0.14 0.19 0.22 0.33 0.35 0.38 0.41 0.47 0.52 0.60 0.56 0.30 0.25 0.36 0.38 0.43 0.43 0.46 0.49 0.44 0.41
0.00 0.00 0.00 0.00 0.00 0.00 0.00 0.00 0.00 0.00 0.00 0.00 0.00 0.00 0.00 0.00 0.01 0.01 0.01 0.03 0.03 0.04 0.09 0.11 0.16 0.22 0.31 0.27 0.28 0.34 0.39 0.40 0.39 0.32 0.38 0.49 0.47 0.51 0.50 0.51 0.55 0.50 0.49
0.00 0.00 0.00 0.00 0.00 0.00 0.00 0.00 0.00 0.00 0.00 0.00 0.00 0.00 0.00 0.00 0.01 0.01 0.03 0.03 0.01 0.00 0.02 0.05 0.06 0.08 0.17 0.26 0.42 0.54 0.64 0.77 0.63 0.47 0.42 0.42 0.31 0.35 0.38 0.42 0.54 0.39 0.33
0.00 0.00 0.00 0.00 0.00 0.00 0.00 0.00 0.00 0.00 0.00 0.00 0.00 0.00 0.01 0.00 0.00 0.04 0.05 0.02 0.01 0.01 0.02 0.04 0.08 0.12 0.18 0.20 0.26 0.44 0.59 0.61 0.62 0.45 0.36 0.35 0.31 0.31 0.32 0.33 0.43 0.46 0.36
0.00 0.00 0.00 0.00 0.00 0.00 0.00 0.00 0.00 0.00 0.00 0.00 0.01 0.01 0.00 0.00 0.03 0.06 0.02 0.01 0.06 0.03 0.02 0.02 0.02 0.02 0.04 0.10 0.22 0.27 0.46 0.71 0.66 0.57 0.37 0.42 0.41 0.37 0.41 0.33 0.42 0.50 0.43

GFSMA_prec_precacc_018.txt.gz
Total_Precipitation_Accumulation
0.00 0.00 0.00 0.00 0.00 0.00 0.00 0.00 0.00 0.00 0.00 0.00 0.00 0.00 0.00 0.00 0.00 0.00 0.00 0.00 0.00 0.00 0.00 0.00 0.00 0.00 0.00 0.00 0.01 0.01 0.00 0.00 0.00 0.00 0.00 0.00 0.00 0.00 0.00 0.00 0.00 0.00 0.00
0.00 0.00 0.00 0.00 0.00 0.00 0.00 0.00 0.00 0.00 0.00 0.00 0.00 0.00 0.00 0.00 0.00 0.00 0.00 0.00 0.00 0.00 0.00 0.00 0.00 0.00 0.00 0.00 0.01 0.01 0.01 0.01 0.01 0.01 0.01 0.00 0.00 0.00 0.00 0.00 0.00 0.00 0.00
0.00 0.00 0.00 0.00 0.00 0.00 0.00 0.00 0.00 0.00 0.00 0.00 0.00 0.00 0.00 0.00 0.00 0.00 0.00 0.00 0.00 0.00 0.00 0.00 0.00 0.00 0.00 0.00 0.00 0.00 0.02 0.03 0.04 0.04 0.04 0.03 0.02 0.00 0.00 0.00 0.00 0.00 0.00
0.00 0.00 0.00 0.00 0.00 0.00 0.00 0.00 0.00 0.00 0.00 0.00 0.00 0.00 0.00 0.00 0.00 0.00 0.00 0.00 0.00 0.00 0.00 0.00 0.00 0.00 0.00 0.00 0.00 0.00 0.00 0.00 0.01 0.03 0.03 0.03 0.04 0.03 0.03 0.03 0.03 0.03 0.02
0.00 0.00 0.00 0.00 0.00 0.00 0.00 0.00 0.00 0.00 0.00 0.00 0.00 0.00 0.00 0.00 0.00 0.00 0.00 0.00 0.00 0.00 0.00 0.00 0.00 0.00 0.00 0.00 0.00 0.00 0.00 0.01 0.00 0.00 0.00 0.01 0.03 0.05 0.05 0.05 0.05 0.05 0.05
0.00 0.00 0.00 0.00 0.00 0.00 0.00 0.00 0.00 0.00 0.00 0.00 0.00 0.00 0.00 0.00 0.00 0.00 0.00 0.00 0.00 0.00 0.00 0.00 0.00 0.00 0.00 0.00 0.00 0.00 0.00 0.00 0.01 0.01 0.01 0.00 0.00 0.01 0.03 0.06 0.06 0.06 0.08
0.00 0.00 0.00 0.00 0.00 0.00 0.00 0.00 0.00 0.00 0.00 0.00 0.00 0.00 0.00 0.00 0.00 0.00 0.00 0.00 0.00 0.00 0.00 0.00 0.00 0.00 0.00 0.00 0.00 0.00 0.00 0.00 0.00 0.00 0.02 0.02 0.02 0.01 0.01 0.02 0.05 0.08 0.11
0.00 0.00 0.00 0.00 0.00 0.00 0.00 0.00 0.00 0.00 0.00 0.00 0.01 0.03 0.02 0.00 0.00 0.00 0.00 0.00 0.00 0.00 0.00 0.00 0.00 0.00 0.00 0.00 0.00 0.00 0.00 0.00 0.00 0.00 0.01 0.02 0.02 0.02 0.03 0.03 0.05 0.07 0.08
0.00 0.00 0.00 0.00 0.00 0.00 0.00 0.00 0.00 0.00 0.01 0.01 0.01 0.05 0.08 0.04 0.02 0.00 0.00 0.00 0.00 0.00 0.00 0.00 0.00 0.00 0.00 0.00 0.00 0.00 0.00 0.00 0.00 0.00 0.01 0.03 0.05 0.06 0.06 0.07 0.07 0.09 0.12
0.00 0.00 0.00 0.00 0.00 0.00 0.00 0.00 0.01 0.01 0.03 0.03 0.02 0.02 0.05 0.06 0.10 0.08 0.01 0.01 0.00 0.00 0.00 0.00 0.00 0.00 0.00 0.00 0.00 0.00 0.00 0.01 0.03 0.03 0.02 0.05 0.10 0.12 0.13 0.14 0.15 0.15 0.15
0.00 0.00 0.00 0.00 0.00 0.00 0.01 0.01 0.02 0.04 0.04 0.04 0.04 0.04 0.06 0.07 0.09 0.14 0.10 0.02 0.01 0.00 0.00 0.00 0.00 0.00 0.00 0.00 0.01 0.01 0.03 0.05 0.06 0.08 0.11 0.16 0.20 0.22 0.29 0.35 0.36 0.31 0.23
0.00 0.00 0.00 0.00 0.00 0.00 0.01 0.02 0.03 0.04 0.08 0.11 0.10 0.09 0.10 0.13 0.10 0.11 0.11 0.07 0.04 0.01 0.01 0.00 0.00 0.00 0.00 0.00 0.01 0.03 0.04 0.03 0.06 0.07 0.14 0.24 0.35 0.46 0.58 0.66 0.68 0.66 0.60
0.00 0.00 0.00 0.00 0.00 0.00 0.01 0.01 0.03 0.05 0.07 0.11 0.13 0.12 0.12 0.11 0.11 0.14 0.18 0.13 0.12 0.05 0.05 0.02 0.01 0.02 0.02 0.03 0.02 0.03 0.02 0.02 0.04 0.04 0.06 0.17 0.28 0.32 0.36 0.43 0.56 0.66 0.80
0.00 0.00 0.00 0.00 0.00 0.00 0.00 0.01 0.03 0.06 0.08 0.10 0.12 0.13 0.15 0.12 0.14 0.15 0.17 0.21 0.15 0.05 0.03 0.02 0.00 0.01 0.03 0.04 0.03 0.03 0.02 0.00 0.01 0.02 0.02 0.03 0.10 0.17 0.21 0.25 0.32 0.39 0.43
0.00 0.00 0.00 0.00 0.00 0.00 0.00 0.00 0.01 0.02 0.04 0.06 0.08 0.10 0.15 0.13 0.14 0.13 0.15 0.23 0.29 0.18 0.05 0.02 0.01 0.01 0.03 0.03 0.02 0.04 0.04 0.02 0.03 0.04 0.05 0.04 0.04 0.08 0.14 0.17 0.21 0.28 0.37
0.00 0.00 0.00 0.00 0.00 0.00 0.00 0.00 0.00 0.00 0.01 0.02 0.04 0.06 0.08 0.10 0.12 0.14 0.15 0.15 0.21 0.29 0.16 0.02 0.02 0.04 0.05 0.03 0.02 0.06 0.07 0.11 0.11 0.10 0.09 0.08 0.07 0.10 0.12 0.15 0.18 0.22 0.28
0.00 0.00 0.00 0.00 0.00 0.00 0.00 0.00 0.00 0.00 0.00 0.00 0.02 0.04 0.06 0.08 0.09 0.08 0.09 0.10 0.11 0.19 0.23 0.03 0.04 0.05 0.06 0.03 0.04 0.07 0.06 0.05 0.05 0.09 0.11 0.12 0.14 0.14 0.15 0.15 0.17 0.20 0.24
0.00 0.00 0.00 0.00 0.00 0.00 0.00 0.00 0.00 0.00 0.00 0.00 0.00 0.01 0.02 0.03 0.05 0.09 0.11 0.10 0.12 0.14 0.23 0.13 0.02 0.03 0.03 0.03 0.03 0.06 0.07 0.10 0.09 0.08 0.10 0.12 0.15 0.18 0.19 0.17 0.15 0.16 0.18
0.00 0.00 0.00 0.00 0.00 0.00 0.00 0.00 0.00 0.00 0.00 0.00 0.00 0.00 0.00 0.00 0.00 0.02 0.06 0.09 0.12 0.15 0.21 0.26 0.12 0.07 0.07 0.06 0.06 0.08 0.11 0.11 0.12 0.15 0.18 0.19 0.22 0.22 0.23 0.24 0.27 0.29 0.31
0.00 0.00 0.00 0.00 0.00 0.00 0.00 0.00 0.00 0.00 0.00 0.00 0.00 0.00 0.00 0.00 0.00 0.00 0.03 0.09 0.14 0.17 0.19 0.21 0.16 0.09 0.08 0.08 0.11 0.11 0.12 0.11 0.13 0.16 0.22 0.28 0.35 0.42 0.44 0.46 0.45 0.40 0.37
0.00 0.00 0.00 0.00 0.00 0.00 0.00 0.00 0.00 0.00 0.00 0.00 0.00 0.00 0.00 0.00 0.00 0.01 0.05 0.07 0.14 0.17 0.20 0.22 0.22 0.20 0.24 0.27 0.25 0.26 0.36 0.37 0.38 0.36 0.34 0.36 0.41 0.46 0.43 0.44 0.47 0.45 0.46
0.00 0.00 0.00 0.00 0.00 0.00 0.00 0.00 0.00 0.00 0.00 0.00 0.00 0.00 0.00 0.00 0.00 0.02 0.05 0.07 0.09 0.15 0.16 0.21 0.23 0.34 0.36 0.40 0.41 0.48 0.54 0.62 0.61 0.32 0.27 0.37 0.39 0.43 0.43 0.46 0.49 0.44 0.41
0.00 0.00 0.00 0.00 0.00 0.00 0.00 0.00 0.00 0.00 0.00 0.00 0.00 0.00 0.00 0.00 0.02 0.02 0.02 0.03 0.06 0.07 0.11 0.12 0.17 0.24 0.33 0.28 0.29 0.36 0.42 0.46 0.43 0.33 0.39 0.50 0.47 0.51 0.51 0.51 0.56 0.50 0.49
0.00 0.00 0.00 0.00 0.00 0.00 0.00 0.00 0.00 0.00 0.00 0.00 0.00 0.00 0.00 0.01 0.01 0.02 0.04 0.09 0.04 0.01 0.02 0.05 0.07 0.09 0.18 0.28 0.45 0.57 0.67 0.79 0.64 0.47 0.43 0.46 0.31 0.36 0.38 0.42 0.54 0.40 0.34
0.00 0.00 0.00 0.00 0.00 0.00 0.00 0.00 0.00 0.00 0.00 0.00 0.00 0.00 0.02 0.01 0.00 0.05 0.11 0.07 0.01 0.01 0.02 0.05 0.09 0.13 0.18 0.20 0.27 0.47 0.64 0.64 0.64 0.46 0.37 0.38 0.32 0.34 0.33 0.33 0.43 0.47 0.36
0.00 0.00 0.00 0.00 0.00 0.00 0.00 0.00 0.00 0.00 0.00 0.00 0.02 0.02 0.01 0.01 0.03 0.12 0.06 0.02 0.06 0.03 0.03 0.03 0.02 0.02 0.04 0.11 0.22 0.28 0.51 0.82 0.71 0.59 0.38 0.48 0.44 0.39 0.45 0.34 0.42 0.50 0.43

GFSMA_prec_precacc_024.txt.gz
Total_Precipitation_Accumulation
0.00 0.00 0.00 0.00 0.00 0.00 0.00 0.00 0.00 0.00 0.00 0.00 0.00 0.00 0.00 0.00 0.00 0.00 0.00 0.00 0.00 0.00 0.00 0.00 0.00 0.00 0.00 0.01 0.02 0.01 0.00 0.00 0.01 0.01 0.00 0.00 0.00 0.00 0.00 0.00 0.00 0.00 0.00
0.00 0.00 0.00 0.00 0.00 0.00 0.00 0.00 0.00 0.00 0.00 0.00 0.00 0.00 0.00 0.00 0.00 0.00 0.00 0.00 0.00 0.00 0.00 0.00 0.00 0.00 0.00 0.01 0.03 0.05 0.04 0.03 0.01 0.01 0.01 0.00 0.01 0.01 0.01 0.00 0.00 0.00 0.00
0.00 0.00 0.00 0.00 0.00 0.00 0.00 0.00 0.00 0.00 0.00 0.00 0.00 0.00 0.00 0.00 0.00 0.00 0.00 0.00 0.00 0.00 0.00 0.00 0.00 0.00 0.00 0.00 0.01 0.04 0.08 0.08 0.07 0.06 0.05 0.03 0.03 0.03 0.03 0.03 0.02 0.01 0.00
0.00 0.00 0.00 0.00 0.00 0.00 0.00 0.00 0.00 0.00 0.00 0.00 0.00 0.00 0.00 0.00 0.00 0.00 0.00 0.00 0.00 0.00 0.00 0.00 0.00 0.00 0.00 0.00 0.00 0.01 0.04 0.06 0.07 0.08 0.09 0.07 0.07 0.07 0.08 0.07 0.07 0.06 0.04
0.00 0.00 0.00 0.00 0.00 0.00 0.00 0.00 0.00 0.00 0.00 0.00 0.00 0.00 0.00 0.00 0.00 0.00 0.00 0.00 0.00 0.00 0.00 0.00 0.00 0.00 0.00 0.00 0.01 0.01 0.02 0.05 0.07 0.07 0.07 0.08 0.09 0.11 0.13 0.13 0.12 0.10 0.10
0.00 0.00 0.00 0.00 0.00 0.00 0.00 0.00 0.00 0.00 0.00 0.00 0.00 0.00 0.00 0.00 0.00 0.00 0.00 0.00 0.00 0.00 0.00 0.00 0.00 0.00 0.00 0.01 0.02 0.03 0.03 0.03 0.04 0.05 0.08 0.09 0.08 0.11 0.14 0.16 0.15 0.15 0.15
0.00 0.00 0.00 0.00 0.00 0.00 0.00 0.00 0.00 0.00 0.00 0.00 0.00 0.00 0.00 0.00 0.00 0.00 0.00 0.00 0.00 0.00 0.00 0.00 0.00 0.00 0.00 0.01 0.02 0.01 0.01 0.01 0.02 0.05 0.10 0.10 0.11 0.14 0.16 0.18 0.19 0.22 0.24
0.00 0.00 0.00 0.00 0.00 0.00 0.00 0.00 0.00 0.00 0.00 0.00 0.01 0.03 0.02 0.00 0.00 0.00 0.00 0.00 0.00 0.00 0.00 0.00 0.00 0.00 0.00 0.00 0.00 0.01 0.01 0.01 0.01 0.02 0.08 0.11 0.12 0.14 0.16 0.19 0.22 0.25 0.28
0.00 0.00 0.00 0.00 0.00 0.00 0.00 0.00 0.00 0.00 0.01 0.01 0.01 0.05 0.08 0.04 0.02 0.00 0.00 0.00 0.00 0.00 0.00 0.00 0.00 0.00 0.00 0.00 0.00 0.00 0.00 0.00 0.00 0.01 0.04 0.11 0.13 0.14 0.16 0.20 0.22 0.28 0.35
0.00 0.00 0.00 0.00 0.00 0.00 0.00 0.00 0.01 0.01 0.03 0.03 0.02 0.02 0.05 0.06 0.10 0.08 0.01 0.01 0.00 0.00 0.00 0.00 0.00 0.00 0.00 0.00 0.00 0.00 0.01 0.03 0.05 0.06 0.06 0.11 0.17 0.21 0.26 0.30 0.34 0.40 0.43
0.00 0.00 0.00 0.00 0.00 0.00 0.01 0.01 0.02 0.04 0.04 0.04 0.04 0.04 0.06 0.07 0.09 0.14 0.10 0.02 0.01 0.00 0.00 0.00 0.00 0.00 0.00 0.00 0.01 0.01 0.03 0.05 0.07 0.09 0.12 0.19 0.25 0.28 0.39 0.49 0.58 0.62 0.64
0.00 0.00 0.00 0.00 0.00 0.00 0.01 0.02 0.03 0.04 0.08 0.11 0.10 0.09 0.10 0.13 0.10 0.11 0.11 0.07 0.04 0.01 0.01 0.00 0.00 0.00 0.00 0.00 0.01 0.03 0.04 0.03 0.06 0.07 0.14 0.24 0.35 0.47 0.61 0.76 0.85 0.89 0.95
0.00 0.00 0.00 0.00 0.00 0.00 0.01 0.01 0.03 0.05 0.07 0.11 0.13 0.12 0.12 0.11 0.11 0.14 0.18 0.13 0.12 0.05 0.05 0.02 0.01 0.02 0.02 0.03 0.02 0.03 0.02 0.02 0.04 0.04 0.06 0.17 0.28 0.32 0.36 0.44 0.60 0.73 0.90
0.00 0.00 0.00 0.00 0.00 0.00 0.00 0.01 0.03 0.06 0.08 0.10 0.12 0.13 0.15 0.12 0.14 0.15 0.17 0.21 0.15 0.05 0.03 0.02 0.00 0.01 0.03 0.04 0.03 0.03 0.02 0.00 0.01 0.02 0.02 0.03 0.10 0.17 0.21 0.25 0.32 0.39 0.44
0.00 0.00 0.00 0.00 0.00 0.00 0.00 0.00 0.01 0.02 0.04 0.06 0.08 0.10 0.15 0.13 0.14 0.13 0.15 0.23 0.29 0.18 0.05 0.02 0.01 0.01 0.03 0.03 0.02 0.04 0.04 0.02 0.03 0.04 0.05 0.04 0.04 0.08 0.14 0.17 0.21 0.29 0.38
0.00 0.00 0.00 0.00 0.00 0.00 0.00 0.00 0.00 0.00 0.01 0.02 0.04 0.06 0.08 0.10 0.12 0.14 0.15 0.15 0.21 0.29 0.16 0.02 0.02 0.04 0.05 0.03 0.02 0.06 0.07 0.11 0.11 0.10 0.09 0.08 0.07 0.10 0.12 0.15 0.18 0.22 0.28
0.00 0.00 0.00 0.00 0.00 0.00 0.00 0.00 0.00 0.00 0.00 0.00 0.02 0.04 0.06 0.08 0.09 0.08 0.09 0.10 0.11 0.19 0.24 0.04 0.04 0.05 0.06 0.03 0.04 0.07 0.06 0.05 0.05 0.09 0.11 0.12 0.14 0.14 0.15 0.15 0.17 0.20 0.24
0.00 0.00 0.00 0.00 0.00 0.00 0.00 0.00 0.00 0.00 0.00 0.00 0.00 0.01 0.02 0.03 0.05 0.09 0.11 0.10 0.12 0.14 0.24 0.14 0.02 0.03 0.03 0.03 0.03 0.06 0.07 0.10 0.09 0.08 0.10 0.12 0.15 0.18 0.19 0.18 0.16 0.16 0.18
0.00 0.00 0.00 0.00 0.00 0.00 0.00 0.00 0.00 0.00 0.00 0.00 0.00 0.00 0.00 0.00 0.00 0.02 0.06 0.09 0.12 0.16 0.23 0.28 0.13 0.07 0.07 0.06 0.06 0.08 0.11 0.11 0.12 0.15 0.18 0.19 0.22 0.22 0.23 0.24 0.27 0.30 0.31
0.00 0.00 0.00 0.00 0.00 0.00 0.00 0.00 0.00 0.00 0.00 0.00 0.00 0.00 0.00 0.00 0.00 0.00 0.03 0.09 0.15 0.18 0.20 0.22 0.17 0.10 0.09 0.08 0.12 0.12 0.12 0.11 0.13 0.16 0.22 0.28 0.35 0.42 0.45 0.47 0.48 0.43 0.39
0.00 0.00 0.00 0.00 0.00 0.00 0.00 0.00 0.00 0.00 0.00 0.00 0.00 0.00 0.00 0.00 0.00 0.01 0.05 0.07 0.16 0.19 0.23 0.27 0.25 0.24 0.28 0.30 0.26 0.26 0.37 0.37 0.38 0.36 0.35 0.36 0.42 0.47 0.44 0.45 0.47 0.45 0.46
0.00 0.00 0.00 0.00 0.00 0.00 0.00 0.00 0.00 0.00 0.00 0.00 0.00 0.00 0.00 0.00 0.00 0.02 0.05 0.08 0.11 0.19 0.21 0.29 0.35 0.44 0.39 0.40 0.42 0.49 0.55 0.63 0.62 0.33 0.28 0.37 0.39 0.43 0.43 0.46 0.49 0.45 0.42
0.00 0.00 0.00 0.00 0.00 0.00 0.00 0.00 0.00 0.00 0.00 0.00 0.00 0.00 0.00 0.00 0.02 0.02 0.02 0.04 0.08 0.14 0.18 0.17 0.21 0.25 0.34 0.28 0.31 0.40 0.46 0.50 0.45 0.33 0.41 0.51 0.47 0.52 0.51 0.52 0.56 0.51 0.50
0.00 0.00 0.00 0.00 0.00 0.00 0.00 0.00 0.00 0.00 0.00 0.00 0.00 0.00 0.00 0.01 0.02 0.03 0.05 0.11 0.08 0.04 0.03 0.06 0.08 0.09 0.19 0.30 0.48 0.61 0.69 0.81 0.66 0.48 0.45 0.50 0.34 0.37 0.39 0.43 0.55 0.41 0.35
0.00 0.00 0.00 0.00 0.00 0.00 0.00 0.00 0.00 0.00 0.00 0.00 0.00 0.00 0.02 0.01 0.01 0.06 0.14 0.14 0.03 0.01 0.02 0.05 0.10 0.14 0.18 0.20 0.27 0.48 0.68 0.69 0.68 0.47 0.38 0.43 0.35 0.35 0.34 0.33 0.43 0.47 0.44
0.00 0.00 0.00 0.00 0.00 0.00 0.00 0.00 0.00 0.00 0.00 0.00 0.02 0.02 0.01 0.01 0.04 0.17 0.10 0.03 0.07 0.03 0.04 0.04 0.02 0.02 0.04 0.11 0.23 0.29 0.54 0.94 0.78 0.63 0.38 0.55 0.48 0.41 0.51 0.34 0.43 0.53 0.45

GFSMA_prec_precacc_027.txt.gz
Total_Precipitation_Accumulation
0.00 0.00 0.00 0.00 0.00 0.00 0.00 0.00 0.00 0.00 0.00 0.00 0.00 0.00 0.00 0.00 0.00 0.00 0.00 0.00 0.00 0.00 0.00 0.00 0.01 0.01 0.03 0.04 0.05 0.05 0.05 0.04 0.03 0.01 0.00 0.00 0.01 0.02 0.02 0.01 0.01 0.00 0.00
0.00 0.00 0.00 0.00 0.00 0.00 0.00 0.00 0.00 0.00 0.00 0.00 0.00 0.00 0.00 0.00 0.00 0.00 0.00 0.00 0.00 0.00 0.00 0.00 0.00 0.01 0.02 0.04 0.06 0.09 0.09 0.07 0.07 0.06 0.04 0.03 0.02 0.03 0.03 0.03 0.03 0.02 0.02
0.00 0.00 0.00 0.00 0.00 0.00 0.00 0.00 0.00 0.00 0.00 0.00 0.00 0.00 0.00 0.00 0.00 0.00 0.00 0.00 0.00 0.00 0.00 0.00 0.01 0.01 0.01 0.02 0.03 0.06 0.09 0.10 0.10 0.11 0.11 0.11 0.10 0.08 0.07 0.06 0.05 0.05 0.04
0.00 0.00 0.00 0.00 0.00 0.00 0.00 0.00 0.00 0.00 0.00 0.00 0.00 0.00 0.00 0.00 0.00 0.00 0.00 0.00 0.00 0.00 0.00 0.00 0.00 0.01 0.01 0.01 0.01 0.02 0.06 0.09 0.10 0.11 0.12 0.13 0.15 0.16 0.16 0.15 0.13 0.11 0.08
0.00 0.00 0.00 0.00 0.00 0.00 0.00 0.00 0.00 0.00 0.00 0.00 0.00 0.00 0.00 0.00 0.00 0.00 0.00 0.00 0.00 0.00 0.00 0.00 0.00 0.00 0.00 0.00 0.01 0.02 0.04 0.09 0.10 0.10 0.10 0.11 0.13 0.16 0.20 0.23 0.24 0.22 0.20
0.00 0.00 0.00 0.00 0.00 0.00 0.00 0.00 0.00 0.00 0.00 0.00 0.00 0.00 0.00 0.00 0.00 0.00 0.00 0.00 0.00 0.00 0.00 0.00 0.00 0.00 0.00 0.01 0.02 0.03 0.03 0.03 0.05 0.07 0.09 0.10 0.09 0.14 0.20 0.24 0.25 0.26 0.27
0.00 0.00 0.00 0.00 0.00 0.00 0.00 0.00 0.00 0.00 0.00 0.00 0.00 0.00 0.00 0.00 0.00 0.00 0.00 0.00 0.00 0.00 0.00 0.00 0.00 0.00 0.00 0.01 0.02 0.01 0.01 0.01 0.02 0.05 0.10 0.10 0.11 0.14 0.17 0.20 0.23 0.29 0.35
0.00 0.00 0.00 0.00 0.00 0.00 0.00 0.00 0.00 0.00 0.00 0.00 0.01 0.03 0.02 0.00 0.00 0.00 0.00 0.00 0.00 0.00 0.00 0.00 0.00 0.00 0.00 0.00 0.00 0.01 0.01 0.01 0.01 0.02 0.08 0.11 0.12 0.14 0.17 0.19 0.23 0.28 0.33
0.00 0.00 0.00 0.00 0.00 0.00 0.00 0.00 0.00 0.00 0.01 0.01 0.01 0.05 0.08 0.04 0.02 0.00 0.00 0.00 0.00 0.00 0.00 0.00 0.00 0.00 0.00 0.00 0.00 0.00 0.00 0.00 0.00 0.01 0.04 0.11 0.13 0.14 0.17 0.21 0.24 0.30 0.37
0.00 0.00 0.00 0.00 0.00 0.00 0.00 0.00 0.01 0.01 0.03 0.03 0.02 0.02 0.05 0.06 0.10 0.08 0.01 0.01 0.00 0.00 0.00 0.00 0.00 0.00 0.00 0.00 0.00 0.00 0.01 0.03 0.05 0.06 0.06 0.11 0.17 0.21 0.27 0.31 0.36 0.42 0.46
0.00 0.00 0.00 0.00 0.00 0.00 0.01 0.01 0.02 0.04 0.04 0.04 0.04 0.04 0.06 0.07 0.09 0.14 0.10 0.02 0.01 0.00 0.00 0.00 0.00 0.00 0.00 0.00 0.01 0.01 0.03 0.05 0.07 0.09 0.12 0.19 0.25 0.28 0.39 0.50 0.59 0.64 0.66
0.00 0.00 0.00 0.00 0.00 0.00 0.01 0.02 0.03 0.04 0.08 0.11 0.10 0.09 0.10 0.13 0.10 0.11 0.11 0.07 0.04 0.01 0.01 0.00 0.00 0.00 0.00 0.00 0.01 0.03 0.04 0.03 0.06 0.07 0.14 0.24 0.35 0.47 0.61 0.77 0.86 0.90 0.96
0.00 0.00 0.00 0.00 0.00 0.00 0.01 0.01 0.03 0.05 0.07 0.11 0.13 0.12 0.12 0.11 0.11 0.14 0.18 0.13 0.12 0.05 0.05 0.02 0.01 0.02 0.02 0.03 0.02 0.03 0.02 0.02 0.04 0.04 0.06 0.17 0.28 0.32 0.36 0.44 0.60 0.73 0.90
0.00 0.00 0.00 0.00 0.00 0.00 0.00 0.01 0.03 0.06 0.08 0.10 0.12 0.13 0.15 0.12 0.14 0.15 0.17 0.21 0.15 0.05 0.03 0.02 0.00 0.01 0.03 0.04 0.03 0.03 0.02 0.00 0.01 0.02 0.02 0.03 0.10 0.17 0.21 0.25 0.32 0.39 0.44
0.00 0.00 0.00 0.00 0.00 0.00 0.00 0.00 0.01 0.02 0.04 0.06 0.08 0.10 0.15 0.13 0.14 0.13 0.15 0.23 0.29 0.18 0.05 0.02 0.01 0.01 0.03 0.03 0.02 0.04 0.04 0.02 0.03 0.04 0.05 0.04 0.04 0.08 0.14 0.18 0.21 0.29 0.38
0.00 0.00 0.00 0.00 0.00 0.00 0.00 0.00 0.00 0.00 0.01 0.02 0.04 0.06 0.08 0.10 0.12 0.14 0.15 0.15 0.21 0.29 0.16 0.02 0.02 0.04 0.05 0.03 0.02 0.06 0.07 0.11 0.11 0.10 0.09 0.08 0.08 0.10 0.12 0.15 0.18 0.23 0.28
0.00 0.00 0.00 0.00 0.00 0.00 0.00 0.00 0.00 0.00 0.00 0.00 0.02 0.04 0.06 0.08 0.09 0.08 0.09 0.10 0.11 0.19 0.24 0.04 0.04 0.05 0.06 0.03 0.04 0.07 0.06 0.05 0.05 0.09 0.12 0.13 0.14 0.14 0.15 0.16 0.17 0.20 0.24
0.00 0.00 0.00 0.00 0.00 0.00 0.00 0.00 0.00 0.00 0.00 0.00 0.00 0.01 0.02 0.03 0.05 0.09 0.11 0.10 0.12 0.14 0.24 0.14 0.02 0.03 0.03 0.03 0.03 0.06 0.07 0.10 0.09 0.08 0.11 0.12 0.15 0.18 0.19 0.18 0.16 0.16 0.18
0.00 0.00 0.00 0.00 0.00 0.00 0.00 0.00 0.00 0.00 0.00 0.00 0.00 0.00 0.00 0.00 0.00 0.02 0.06 0.09 0.12 0.16 0.23 0.28 0.13 0.07 0.07 0.06 0.06 0.08 0.11 0.12 0.12 0.15 0.18 0.19 0.22 0.22 0.23 0.25 0.27 0.30 0.31
0.00 0.00 0.00 0.00 0.00 0.00 0.00 0.00 0.00 0.00 0.00 0.00 0.00 0.00 0.00 0.00 0.00 0.00 0.03 0.09 0.15 0.18 0.20 0.23 0.19 0.13 0.10 0.09 0.13 0.13 0.12 0.11 0.13 0.16 0.22 0.28 0.35 0.42 0.45 0.47 0.48 0.43 0.39
0.00 0.00 0.00 0.00 0.00 0.00 0.00 0.00 0.00 0.00 0.00 0.00 0.00 0.00 0.00 0.00 0.00 0.01 0.05 0.07 0.16 0.19 0.26 0.33 0.29 0.27 0.30 0.31 0.26 0.26 0.37 0.37 0.38 0.36 0.35 0.36 0.42 0.47 0.44 0.45 0.47 0.45 0.46
0.00 0.00 0.00 0.00 0.00 0.00 0.00 0.00 0.00 0.00 0.00 0.00 0.00 0.00 0.00 0.00 0.00 0.02 0.05 0.08 0.11 0.21 0.23 0.34 0.41 0.45 0.39 0.40 0.42 0.49 0.56 0.64 0.64 0.33 0.28 0.37 0.39 0.43 0.43 0.46 0.50 0.46 0.43
0.00 0.00 0.00 0.00 0.00 0.00 0.00 0.00 0.00 0.00 0.00 0.00 0.00 0.00 0.00 0.00 0.02 0.02 0.02 0.05 0.09 0.19 0.24 0.20 0.22 0.25 0.34 0.28 0.33 0.45 0.49 0.52 0.47 0.33 0.41 0.51 0.47 0.52 0.51 0.52 0.56 0.51 0.51
0.00 0.00 0.00 0.00 0.00 0.00 0.00 0.00 0.00 0.00 0.00 0.00 0.00 0.00 0.00 0.01 0.02 0.03 0.05 0.12 0.10 0.06 0.03 0.06 0.08 0.09 0.19 0.31 0.49 0.62 0.70 0.81 0.66 0.48 0.45 0.51 0.34 0.38 0.39 0.43 0.55 0.41 0.35
0.00 0.00 0.00 0.00 0.00 0.00 0.00 0.00 0.00 0.00 0.00 0.00 0.00 0.00 0.03 0.02 0.01 0.07 0.16 0.20 0.05 0.01 0.02 0.05 0.11 0.15 0.19 0.20 0.27 0.49 0.72 0.72 0.70 0.47 0.38 0.43 0.36 0.35 0.34 0.33 0.43 0.47 0.44
0.00 0.00 0.00 0.00 0.00 0.00 0.00 0.00 0.00 0.00 0.00 0.00 0.02 0.02 0.01 0.02 0.04 0.20 0.13 0.04 0.08 0.03 0.04 0.05 0.02 0.02 0.04 0.11 0.23 0.29 0.57 1.01 0.81 0.65 0.38 0.56 0.49 0.42 0.53 0.35 0.43 0.53 0.45

GFSMA_prec_precacc_030.txt.gz
Total_Precipitation_Accumulation
0.00 0.00 0.00 0.00 0.00 0.00 0.00 0.00 0.00 0.00 0.00 0.00 0.00 0.00 0.00 0.00 0.00 0.00 0.00 0.00 0.00 0.00 0.00 0.00 0.01 0.01 0.04 0.07 0.10 0.11 0.12 0.09 0.07 0.06 0.07 0.06 0.05 0.05 0.04 0.04 0.04 0.04 0.03
0.00 0.00 0.00 0.00 0.00 0.00 0.00 0.00 0.00 0.00 0.00 0.00 0.00 0.00 0.00 0.00 0.00 0.00 0.00 0.00 0.00 0.00 0.00 0.00 0.00 0.01 0.02 0.04 0.07 0.12 0.11 0.09 0.08 0.08 0.08 0.09 0.09 0.09 0.10 0.09 0.07 0.05 0.06
0.00 0.00 0.00 0.00 0.00 0.00 0.00 0.00 0.00 0.00 0.00 0.00 0.00 0.00 0.00 0.00 0.00 0.00 0.00 0.00 0.00 0.00 0.00 0.00 0.01 0.01 0.01 0.02 0.04 0.07 0.10 0.11 0.11 0.12 0.13 0.13 0.13 0.13 0.13 0.14 0.14 0.13 0.10
0.00 0.00 0.00 0.00 0.00 0.00 0.00 0.00 0.00 0.00 0.00 0.00 0.00 0.00 0.00 0.00 0.00 0.00 0.00 0.00 0.00 0.00 0.00 0.00 0.00 0.01 0.01 0.01 0.01 0.02 0.06 0.09 0.10 0.12 0.13 0.14 0.16 0.17 0.19 0.19 0.19 0.20 0.20
0.00 0.00 0.00 0.00 0.00 0.00 0.00 0.00 0.00 0.00 0.00 0.00 0.00 0.00 0.00 0.00 0.00 0.00 0.00 0.00 0.00 0.00 0.00 0.00 0.00 0.00 0.00 0.00 0.01 0.02 0.04 0.09 0.10 0.10 0.10 0.11 0.13 0.16 0.20 0.24 0.26 0.27 0.28
0.00 0.00 0.00 0.00 0.00 0.00 0.00 0.00 0.00 0.00 0.00 0.00 0.00 0.00 0.00 0.00 0.00 0.00 0.00 0.00 0.00 0.00 0.00 0.00 0.00 0.00 0.00 0.01 0.02 0.03 0.03 0.03 0.05 0.07 0.09 0.10 0.09 0.14 0.20 0.24 0.26 0.27 0.28
0.00 0.00 0.00 0.00 0.00 0.00 0.00 0.00 0.00 0.00 0.00 0.00 0.00 0.00 0.00 0.00 0.00 0.00 0.00 0.00 0.00 0.00 0.00 0.00 0.00 0.00 0.00 0.01 0.02 0.01 0.01 0.01 0.02 0.05 0.10 0.10 0.11 0.14 0.17 0.20 0.23 0.29 0.35
0.00 0.00 0.00 0.00 0.00 0.00 0.00 0.00 0.00 0.00 0.00 0.00 0.01 0.03 0.02 0.00 0.00 0.00 0.00 0.00 0.00 0.00 0.00 0.00 0.00 0.00 0.00 0.00 0.00 0.01 0.01 0.01 0.01 0.02 0.08 0.11 0.12 0.14 0.17 0.19 0.23 0.28 0.33
0.00 0.00 0.00 0.00 0.00 0.00 0.00 0.00 0.00 0.00 0.01 0.01 0.01 0.05 0.08 0.04 0.02 0.00 0.00 0.00 0.00 0.00 0.00 0.00 0.00 0.00 0.00 0.00 0.00 0.00 0.00 0.00 0.00 0.01 0.04 0.11 0.13 0.14 0.17 0.21 0.24 0.30 0.38
0.00 0.00 0.00 0.00 0.00 0.00 0.00 0.00 0.01 0.01 0.03 0.03 0.02 0.02 0.05 0.06 0.10 0.08 0.01 0.01 0.00 0.00 0.00 0.00 0.00 0.00 0.00 0.00 0.00 0.00 0.01 0.03 0.05 0.06 0.06 0.11 0.17 0.21 0.27 0.31 0.36 0.42 0.46
0.00 0.00 0.00 0.00 0.00 0.00 0.01 0.01 0.02 0.04 0.04 0.04 0.04 0.04 0.06 0.07 0.09 0.14 0.10 0.02 0.01 0.00 0.00 0.00 0.00 0.00 0.00 0.00 0.01 0.01 0.03 0.05 0.07 0.09 0.12 0.19 0.25 0.28 0.39 0.50 0.59 0.64 0.66
0.00 0.00 0.00 0.00 0.00 0.00 0.01 0.02 0.03 0.04 0.08 0.11 0.10 0.09 0.10 0.13 0.10 0.11 0.11 0.07 0.04 0.01 0.01 0.00 0.00 0.00 0.00 0.00 0.01 0.03 0.04 0.03 0.06 0.07 0.14 0.24 0.35 0.47 0.61 0.77 0.86 0.90 0.96
0.00 0.00 0.00 0.00 0.00 0.00 0.01 0.01 0.03 0.05 0.07 0.11 0.13 0.12 0.12 0.11 0.11 0.14 0.18 0.13 0.12 0.05 0.05 0.02 0.01 0.02 0.02 0.03 0.02 0.03 0.02 0.02 0.04 0.04 0.06 0.17 0.28 0.32 0.36 0.44 0.60 0.73 0.91
0.00 0.00 0.00 0.00 0.00 0.00 0.00 0.01 0.03 0.06 0.08 0.10 0.12 0.13 0.15 0.12 0.14 0.15 0.17 0.21 0.15 0.05 0.03 0.02 0.00 0.01 0.03 0.04 0.03 0.03 0.02 0.00 0.01 0.02 0.02 0.03 0.10 0.17 0.21 0.25 0.33 0.41 0.46
0.00 0.00 0.00 0.00 0.00 0.00 0.00 0.00 0.01 0.02 0.04 0.06 0.08 0.10 0.15 0.13 0.14 0.13 0.15 0.23 0.29 0.18 0.05 0.02 0.01 0.01 0.03 0.03 0.02 0.04 0.04 0.02 0.03 0.04 0.05 0.04 0.04 0.08 0.14 0.18 0.22 0.29 0.38
0.00 0.00 0.00 0.00 0.00 0.00 0.00 0.00 0.00 0.00 0.01 0.02 0.04 0.06 0.08 0.10 0.12 0.14 0.15 0.15 0.21 0.29 0.16 0.02 0.02 0.04 0.05 0.03 0.02 0.06 0.07 0.11 0.11 0.10 0.09 0.08 0.08 0.11 0.14 0.16 0.20 0.24 0.29
0.00 0.00 0.00 0.00 0.00 0.00 0.00 0.00 0.00 0.00 0.00 0.00 0.02 0.04 0.06 0.08 0.09 0.08 0.09 0.10 0.11 0.19 0.24 0.04 0.04 0.05 0.06 0.03 0.04 0.07 0.06 0.05 0.05 0.09 0.12 0.14 0.15 0.16 0.16 0.16 0.18 0.21 0.25
0.00 0.00 0.00 0.00 0.00 0.00 0.00 0.00 0.00 0.00 0.00 0.00 0.00 0.01 0.02 0.03 0.05 0.09 0.11 0.10 0.12 0.14 0.24 0.14 0.02 0.03 0.03 0.03 0.03 0.06 0.07 0.10 0.09 0.09 0.11 0.12 0.15 0.18 0.19 0.18 0.16 0.16 0.19
0.00 0.00 0.00 0.00 0.00 0.00 0.00 0.00 0.00 0.00 0.00 0.00 0.00 0.00 0.00 0.00 0.00 0.02 0.06 0.09 0.12 0.16 0.23 0.29 0.14 0.07 0.07 0.06 0.06 0.08 0.11 0.12 0.12 0.15 0.18 0.19 0.22 0.22 0.23 0.25 0.28 0.32 0.34
0.00 0.00 0.00 0.00 0.00 0.00 0.00 0.00 0.00 0.00 0.00 0.00 0.00 0.00 0.00 0.00 0.00 0.00 0.03 0.09 0.15 0.18 0.20 0.23 0.21 0.15 0.10 0.10 0.14 0.14 0.12 0.11 0.13 0.16 0.22 0.28 0.36 0.42 0.45 0.48 0.48 0.43 0.40
0.00 0.00 0.00 0.00 0.00 0.00 0.00 0.00 0.00 0.00 0.00 0.00 0.00 0.00 0.00 0.00 0.00 0.01 0.06 0.08 0.16 0.20 0.29 0.37 0.31 0.30 0.34 0.32 0.26 0.26 0.37 0.37 0.38 0.36 0.35 0.36 0.42 0.47 0.44 0.45 0.47 0.45 0.46
0.00 0.00 0.00 0.00 0.00 0.00 0.00 0.00 0.00 0.00 0.00 0.00 0.00 0.00 0.00 0.00 0.00 0.02 0.05 0.08 0.12 0.22 0.25 0.41 0.51 0.49 0.39 0.40 0.42 0.49 0.59 0.70 0.66 0.33 0.28 0.37 0.39 0.43 0.43 0.46 0.50 0.46 0.44
0.00 0.00 0.00 0.00 0.00 0.00 0.00 0.00 0.00 0.00 0.00 0.00 0.00 0.00 0.00 0.00 0.02 0.02 0.02 0.06 0.10 0.22 0.31 0.24 0.22 0.25 0.34 0.29 0.38 0.51 0.53 0.53 0.47 0.33 0.41 0.51 0.47 0.52 0.51 0.52 0.56 0.51 0.51
0.00 0.00 0.00 0.00 0.00 0.00 0.00 0.00 0.00 0.00 0.00 0.00 0.00 0.00 0.00 0.01 0.02 0.04 0.05 0.14 0.17 0.11 0.03 0.06 0.08 0.10 0.21 0.33 0.51 0.62 0.70 0.82 0.67 0.48 0.45 0.52 0.34 0.38 0.39 0.43 0.55 0.41 0.35
0.00 0.00 0.00 0.00 0.00 0.00 0.00 0.00 0.00 0.00 0.00 0.00 0.00 0.00 0.03 0.02 0.01 0.07 0.19 0.26 0.06 0.01 0.02 0.05 0.13 0.16 0.19 0.20 0.27 0.52 0.76 0.75 0.71 0.47 0.38 0.44 0.36 0.36 0.34 0.33 0.43 0.47 0.44
0.00 0.00 0.00 0.00 0.00 0.00 0.00 0.00 0.00 0.00 0.00 0.00 0.02 0.02 0.02 0.02 0.05 0.25 0.15 0.04 0.08 0.04 0.06 0.06 0.02 0.02 0.04 0.11 0.23 0.30 0.61 1.09 0.84 0.67 0.39 0.60 0.51 0.43 0.57 0.35 0.43 0.53 0.45

GFSMA_prec_precacc_033.txt.gz
Total_Precipitation_Accumulation
0.00 0.00 0.00 0.00 0.00 0.00 0.00 0.00 0.00 0.00 0.00 0.00 0.00 0.00 0.00 0.00 0.00 0.00 0.00 0.00 0.00 0.00 0.00 0.00 0.01 0.01 0.04 0.07 0.11 0.13 0.14 0.12 0.10 0.09 0.08 0.09 0.09 0.10 0.11 0.12 0.11 0.09 0.06
0.00 0.00 0.00 0.00 0.00 0.00 0.00 0.00 0.00 0.00 0.00 0.00 0.00 0.00 0.00 0.00 0.00 0.00 0.00 0.00 0.00 0.00 0.00 0.00 0.00 0.01 0.02 0.04 0.07 0.12 0.11 0.09 0.08 0.08 0.08 0.09 0.09 0.10 0.12 0.13 0.15 0.16 0.16
0.00 0.00 0.00 0.00 0.00 0.00 0.00 0.00 0.00 0.00 0.00 0.00 0.00 0.00 0.00 0.00 0.00 0.00 0.00 0.00 0.00 0.00 0.00 0.00 0.01 0.01 0.01 0.02 0.04 0.07 0.10 0.11 0.11 0.12 0.13 0.13 0.13 0.13 0.13 0.15 0.16 0.16 0.17
0.00 0.00 0.00 0.00 0.00 0.00 0.00 0.00 0.00 0.00 0.00 0.00 0.00 0.00 0.00 0.00 0.00 0.00 0.00 0.00 0.00 0.00 0.00 0.00 0.00 0.01 0.01 0.01 0.01 0.02 0.06 0.09 0.10 0.12 0.13 0.14 0.16 0.17 0.19 0.19 0.19 0.20 0.21
0.00 0.00 0.00 0.00 0.00 0.00 0.00 0.00 0.00 0.00 0.00 0.00 0.00 0.00 0.00 0.00 0.00 0.00 0.00 0.00 0.00 0.00 0.00 0.00 0.00 0.00 0.00 0.00 0.01 0.02 0.04 0.09 0.10 0.10 0.10 0.11 0.13 0.16 0.20 0.24 0.26 0.27 0.28
0.00 0.00 0.00 0.00 0.00 0.00 0.00 0.00 0.00 0.00 0.00 0.00 0.00 0.00 0.00 0.00 0.00 0.00 0.00 0.00 0.00 0.00 0.00 0.00 0.00 0.00 0.00 0.01 0.02 0.03 0.03 0.03 0.05 0.07 0.09 0.10 0.09 0.14 0.20 0.24 0.26 0.27 0.28
0.00 0.00 0.00 0.00 0.00 0.00 0.00 0.00 0.00 0.00 0.00 0.00 0.00 0.00 0.00 0.00 0.00 0.00 0.00 0.00 0.00 0.00 0.00 0.00 0.00 0.00 0.00 0.01 0.02 0.01 0.01 0.01 0.02 0.05 0.10 0.10 0.11 0.14 0.17 0.20 0.23 0.29 0.35
0.00 0.00 0.00 0.00 0.00 0.00 0.00 0.00 0.00 0.00 0.00 0.00 0.01 0.03 0.02 0.00 0.00 0.00 0.00 0.00 0.00 0.00 0.00 0.00 0.00 0.00 0.00 0.00 0.00 0.01 0.01 0.01 0.01 0.02 0.08 0.11 0.12 0.14 0.17 0.19 0.23 0.28 0.33
0.00 0.00 0.00 0.00 0.00 0.00 0.00 0.00 0.00 0.00 0.01 0.01 0.01 0.05 0.08 0.04 0.02 0.00 0.00 0.00 0.00 0.00 0.00 0.00 0.00 0.00 0.00 0.00 0.00 0.00 0.00 0.00 0.00 0.01 0.04 0.11 0.13 0.14 0.17 0.21 0.24 0.30 0.38
0.00 0.00 0.00 0.00 0.00 0.00 0.00 0.00 0.01 0.01 0.03 0.03 0.02 0.02 0.05 0.06 0.10 0.08 0.01 0.01 0.00 0.00 0.00 0.00 0.00 0.00 0.00 0.00 0.00 0.00 0.01 0.03 0.05 0.06 0.06 0.11 0.17 0.21 0.27 0.31 0.36 0.42 0.46
0.00 0.00 0.00 0.00 0.00 0.00 0.01 0.01 0.02 0.04 0.04 0.04 0.04 0.04 0.06 0.07 0.09 0.14 0.10 0.02 0.01 0.00 0.00 0.00 0.00 0.00 0.00 0.00 0.01 0.01 0.03 0.05 0.07 0.09 0.12 0.19 0.25 0.28 0.39 0.50 0.59 0.64 0.66
0.00 0.00 0.00 0.00 0.00 0.00 0.01 0.02 0.03 0.04 0.08 0.11 0.10 0.09 0.10 0.13 0.10 0.11 0.11 0.07 0.04 0.01 0.01 0.00 0.00 0.00 0.00 0.00 0.01 0.03 0.04 0.03 0.06 0.07 0.14 0.24 0.35 0.47 0.61 0.77 0.86 0.90 0.96
0.00 0.00 0.00 0.00 0.00 0.00 0.01 0.01 0.03 0.05 0.07 0.11 0.13 0.12 0.12 0.11 0.11 0.14 0.18 0.13 0.12 0.05 0.05 0.02 0.01 0.02 0.02 0.03 0.02 0.03 0.02 0.02 0.04 0.04 0.06 0.17 0.28 0.32 0.36 0.44 0.60 0.73 0.91
0.00 0.00 0.00 0.00 0.00 0.00 0.00 0.01 0.03 0.06 0.08 0.10 0.12 0.13 0.15 0.12 0.14 0.15 0.17 0.21 0.15 0.05 0.03 0.02 0.00 0.01 0.03 0.04 0.03 0.03 0.02 0.00 0.01 0.02 0.02 0.03 0.10 0.17 0.21 0.25 0.33 0.41 0.47
0.00 0.00 0.00 0.00 0.00 0.00 0.00 0.00 0.01 0.02 0.04 0.06 0.08 0.10 0.15 0.13 0.14 0.13 0.15 0.23 0.29 0.18 0.05 0.02 0.01 0.01 0.03 0.03 0.02 0.04 0.04 0.02 0.03 0.04 0.05 0.04 0.04 0.08 0.14 0.18 0.22 0.30 0.39
0.00 0.00 0.00 0.00 0.00 0.00 0.00 0.00 0.00 0.00 0.01 0.02 0.04 0.06 0.08 0.10 0.12 0.14 0.15 0.15 0.21 0.29 0.16 0.02 0.02 0.04 0.05 0.03 0.02 0.06 0.07 0.11 0.11 0.10 0.09 0.08 0.08 0.11 0.14 0.17 0.21 0.27 0.33
0.00 0.00 0.00 0.00 0.00 0.00 0.00 0.00 0.00 0.00 0.00 0.00 0.02 0.04 0.06 0.08 0.09 0.08 0.09 0.10 0.11 0.19 0.24 0.04 0.04 0.05 0.06 0.03 0.04 0.07 0.06 0.05 0.05 0.10 0.13 0.14 0.15 0.16 0.16 0.17 0.18 0.22 0.26
0.00 0.00 0.00 0.00 0.00 0.00 0.00 0.00 0.00 0.00 0.00 0.00 0.00 0.01 0.02 0.03 0.05 0.09 0.11 0.10 0.12 0.14 0.24 0.15 0.02 0.03 0.03 0.03 0.03 0.06 0.07 0.11 0.11 0.10 0.11 0.12 0.15 0.18 0.19 0.18 0.16 0.17 0.19
0.00 0.00 0.00 0.00 0.00 0.00 0.00 0.00 0.00 0.00 0.00 0.00 0.00 0.00 0.00 0.00 0.00 0.02 0.06 0.09 0.12 0.16 0.23 0.29 0.14 0.07 0.07 0.06 0.07 0.09 0.11 0.12 0.12 0.15 0.18 0.19 0.22 0.22 0.23 0.25 0.28 0.34 0.38
0.00 0.00 0.00 0.00 0.00 0.00 0.00 0.00 0.00 0.00 0.00 0.00 0.00 0.00 0.00 0.00 0.00 0.00 0.03 0.09 0.15 0.18 0.20 0.23 0.22 0.15 0.10 0.12 0.17 0.14 0.12 0.11 0.13 0.16 0.22 0.28 0.36 0.42 0.45 0.48 0.48 0.44 0.40
0.00 0.00 0.00 0.00 0.00 0.00 0.00 0.00 0.00 0.00 0.00 0.00 0.00 0.00 0.00 0.00 0.00 0.01 0.06 0.08 0.16 0.20 0.31 0.39 0.33 0.35 0.39 0.33 0.26 0.26 0.37 0.37 0.39 0.36 0.35 0.36 0.42 0.47 0.44 0.45 0.47 0.45 0.46
0.00 0.00 0.00 0.00 0.00 0.00 0.00 0.00 0.00 0.00 0.00 0.00 0.00 0.00 0.00 0.00 0.00 0.02 0.05 0.09 0.12 0.23 0.29 0.50 0.58 0.51 0.39 0.40 0.42 0.50 0.61 0.72 0.67 0.33 0.28 0.37 0.39 0.43 0.43 0.46 0.50 0.46 0.44
0.00 0.00 0.00 0.00 0.00 0.00 0.00 0.00 0.00 0.00 0.00 0.00 0.00 0.00 0.00 0.00 0.02 0.02 0.02 0.06 0.11 0.27 0.35 0.25 0.22 0.25 0.34 0.30 0.43 0.55 0.54 0.54 0.48 0.33 0.42 0.53 0.47 0.52 0.51 0.52 0.56 0.51 0.51
0.00 0.00 0.00 0.00 0.00 0.00 0.00 0.00 0.00 0.00 0.00 0.00 0.00 0.00 0.00 0.01 0.02 0.04 0.07 0.18 0.20 0.12 0.03 0.06 0.08 0.10 0.21 0.35 0.52 0.63 0.72 0.84 0.67 0.48 0.46 0.55 0.34 0.38 0.39 0.43 0.55 0.41 0.35
0.00 0.00 0.00 0.00 0.00 0.00 0.00 0.00 0.00 0.00 0.00 0.00 0.00 0.00 0.03 0.02 0.02 0.09 0.21 0.27 0.06 0.01 0.02 0.05 0.14 0.16 0.19 0.20 0.27 0.57 0.79 0.77 0.72 0.47 0.38 0.45 0.37 0.36 0.34 0.33 0.43 0.47 0.44
0.00 0.00 0.00 0.00 0.00 0.00 0.00 0.00 0.00 0.00 0.00 0.00 0.02 0.02 0.02 0.02 0.06 0.27 0.15 0.04 0.08 0.04 0.09 0.07 0.02 0.02 0.04 0.11 0.23 0.32 0.66 1.15 0.87 0.69 0.39 0.62 0.53 0.43 0.61 0.36 0.43 0.53 0.45

GFSMA_prec_precacc_036.txt.gz
Total_Precipitation_Accumulation
0.00 0.00 0.00 0.00 0.00 0.00 0.00 0.00 0.00 0.00 0.00 0.00 0.00 0.00 0.00 0.00 0.00 0.00 0.00 0.00 0.00 0.00 0.00 0.00 0.01 0.01 0.04 0.07 0.11 0.13 0.14 0.12 0.10 0.09 0.09 0.09 0.09 0.11 0.12 0.14 0.15 0.15 0.14
0.00 0.00 0.00 0.00 0.00 0.00 0.00 0.00 0.00 0.00 0.00 0.00 0.00 0.00 0.00 0.00 0.00 0.00 0.00 0.00 0.00 0.00 0.00 0.00 0.00 0.01 0.02 0.04 0.07 0.12 0.11 0.09 0.08 0.08 0.08 0.09 0.09 0.10 0.12 0.13 0.15 0.16 0.18
0.00 0.00 0.00 0.00 0.00 0.00 0.00 0.00 0.00 0.00 0.00 0.00 0.00 0.00 0.00 0.00 0.00 0.00 0.00 0.00 0.00 0.00 0.00 0.00 0.01 0.01 0.01 0.02 0.04 0.07 0.10 0.11 0.11 0.12 0.13 0.13 0.13 0.13 0.13 0.15 0.16 0.16 0.17
0.00 0.00 0.00 0.00 0.00 0.00 0.00 0.00 0.00 0.00 0.00 0.00 0.00 0.00 0.00 0.00 0.00 0.00 0.00 0.00 0.00 0.00 0.00 0.00 0.00 0.01 0.01 0.01 0.01 0.02 0.06 0.09 0.10 0.12 0.13 0.14 0.16 0.17 0.19 0.19 0.19 0.20 0.21
0.00 0.00 0.00 0.00 0.00 0.00 0.00 0.00 0.00 0.00 0.00 0.00 0.00 0.00 0.00 0.00 0.00 0.00 0.00 0.00 0.00 0.00 0.00 0.00 0.00 0.00 0.00 0.00 0.01 0.02 0.04 0.09 0.10 0.10 0.10 0.11 0.13 0.16 0.20 0.24 0.26 0.27 0.28
0.00 0.00 0.00 0.00 0.00 0.00 0.00 0.00 0.00 0.00 0.00 0.00 0.00 0.00 0.00 0.00 0.00 0.00 0.00 0.00 0.00 0.00 0.00 0.00 0.00 0.00 0.00 0.01 0.02 0.03 0.03 0.03 0.05 0.07 0.09 0.10 0.09 0.14 0.20 0.24 0.26 0.27 0.28
0.00 0.00 0.00 0.00 0.00 0.00 0.00 0.00 0.00 0.00 0.00 0.00 0.00 0.00 0.00 0.00 0.00 0.00 0.00 0.00 0.00 0.00 0.00 0.00 0.00 0.00 0.00 0.01 0.02 0.01 0.01 0.01 0.02 0.05 0.10 0.10 0.11 0.14 0.17 0.20 0.23 0.29 0.35
0.00 0.00 0.00 0.00 0.00 0.00 0.00 0.00 0.00 0.00 0.00 0.00 0.01 0.03 0.02 0.00 0.00 0.00 0.00 0.00 0.00 0.00 0.00 0.00 0.00 0.00 0.00 0.00 0.00 0.01 0.01 0.01 0.01 0.02 0.08 0.11 0.12 0.14 0.17 0.19 0.23 0.28 0.33
0.00 0.00 0.00 0.00 0.00 0.00 0.00 0.00 0.00 0.00 0.01 0.01 0.01 0.05 0.08 0.04 0.02 0.00 0.00 0.00 0.00 0.00 0.00 0.00 0.00 0.00 0.00 0.00 0.00 0.00 0.00 0.00 0.00 0.01 0.04 0.11 0.13 0.14 0.17 0.21 0.24 0.30 0.38
0.00 0.00 0.00 0.00 0.00 0.00 0.00 0.00 0.01 0.01 0.03 0.03 0.02 0.02 0.05 0.06 0.10 0.08 0.01 0.01 0.00 0.00 0.00 0.00 0.00 0.00 0.00 0.00 0.00 0.00 0.01 0.03 0.05 0.06 0.06 0.11 0.17 0.21 0.27 0.31 0.36 0.42 0.46
0.00 0.00 0.00 0.00 0.00 0.00 0.01 0.01 0.02 0.04 0.04 0.04 0.04 0.04 0.06 0.07 0.09 0.14 0.10 0.02 0.01 0.00 0.00 0.00 0.00 0.00 0.00 0.00 0.01 0.01 0.03 0.05 0.07 0.09 0.12 0.19 0.25 0.28 0.39 0.50 0.59 0.65 0.66
0.00 0.00 0.00 0.00 0.00 0.00 0.01 0.02 0.03 0.04 0.08 0.11 0.10 0.09 0.10 0.13 0.10 0.11 0.11 0.07 0.04 0.01 0.01 0.00 0.00 0.00 0.00 0.00 0.01 0.03 0.04 0.03 0.06 0.07 0.14 0.24 0.35 0.47 0.61 0.77 0.86 0.90 0.96
0.00 0.00 0.00 0.00 0.00 0.00 0.01 0.01 0.03 0.05 0.07 0.11 0.13 0.12 0.12 0.11 0.11 0.14 0.18 0.13 0.12 0.05 0.05 0.02 0.01 0.02 0.02 0.03 0.02 0.03 0.02 0.02 0.04 0.04 0.06 0.17 0.28 0.32 0.36 0.44 0.60 0.73 0.91
0.00 0.00 0.00 0.00 0.00 0.00 0.00 0.01 0.03 0.06 0.08 0.10 0.12 0.13 0.15 0.12 0.14 0.15 0.17 0.21 0.15 0.05 0.03 0.02 0.00 0.01 0.03 0.04 0.03 0.03 0.02 0.00 0.01 0.02 0.02 0.03 0.10 0.17 0.21 0.25 0.33 0.41 0.47
0.00 0.00 0.00 0.00 0.00 0.00 0.00 0.00 0.01 0.02 0.04 0.06 0.08 0.10 0.15 0.13 0.14 0.13 0.15 0.23 0.29 0.18 0.05 0.02 0.01 0.01 0.03 0.03 0.02 0.04 0.04 0.02 0.03 0.04 0.05 0.04 0.04 0.08 0.14 0.18 0.22 0.30 0.40
0.00 0.00 0.00 0.00 0.00 0.00 0.00 0.00 0.00 0.00 0.01 0.02 0.04 0.06 0.08 0.10 0.12 0.14 0.15 0.15 0.21 0.29 0.16 0.02 0.02 0.04 0.05 0.03 0.02 0.06 0.07 0.11 0.11 0.10 0.09 0.09 0.09 0.12 0.15 0.18 0.21 0.27 0.33
0.00 0.00 0.00 0.00 0.00 0.00 0.00 0.00 0.00 0.00 0.00 0.00 0.02 0.04 0.06 0.08 0.09 0.08 0.09 0.10 0.11 0.19 0.24 0.04 0.04 0.05 0.06 0.03 0.04 0.07 0.06 0.05 0.05 0.10 0.14 0.15 0.16 0.16 0.16 0.17 0.19 0.24 0.29
0.00 0.00 0.00 0.00 0.00 0.00 0.00 0.00 0.00 0.00 0.00 0.00 0.00 0.01 0.02 0.03 0.05 0.09 0.11 0.10 0.12 0.14 0.24 0.15 0.02 0.03 0.03 0.03 0.03 0.06 0.07 0.11 0.11 0.10 0.12 0.12 0.15 0.18 0.19 0.18 0.18 0.19 0.20
0.00 0.00 0.00 0.00 0.00 0.00 0.00 0.00 0.00 0.00 0.00 0.00 0.00 0.00 0.00 0.00 0.00 0.02 0.06 0.09 0.12 0.16 0.23 0.30 0.14 0.07 0.07 0.06 0.07 0.09 0.11 0.12 0.12 0.15 0.18 0.19 0.22 0.22 0.23 0.25 0.30 0.37 0.41
0.00 0.00 0.00 0.00 0.00 0.00 0.00 0.00 0.00 0.00 0.00 0.00 0.00 0.00 0.00 0.00 0.00 0.00 0.03 0.09 0.15 0.18 0.20 0.23 0.22 0.16 0.13 0.13 0.17 0.14 0.12 0.11 0.13 0.16 0.22 0.28 0.36 0.43 0.45 0.48 0.48 0.44 0.40
0.00 0.00 0.00 0.00 0.00 0.00 0.00 0.00 0.00 0.00 0.00 0.00 0.00 0.00 0.00 0.00 0.00 0.01 0.06 0.08 0.16 0.20 0.31 0.42 0.39 0.39 0.39 0.33 0.26 0.26 0.37 0.38 0.39 0.37 0.35 0.36 0.42 0.47 0.44 0.45 0.47 0.45 0.46
0.00 0.00 0.00 0.00 0.00 0.00 0.00 0.00 0.00 0.00 0.00 0.00 0.00 0.00 0.00 0.00 0.00 0.02 0.06 0.09 0.13 0.26 0.36 0.54 0.59 0.51 0.39 0.40 0.42 0.50 0.63 0.74 0.68 0.33 0.29 0.38 0.39 0.43 0.43 0.46 0.50 0.46 0.44
0.00 0.00 0.00 0.00 0.00 0.00 0.00 0.00 0.00 0.00 0.00 0.00 0.00 0.00 0.00 0.00 0.02 0.02 0.02 0.07 0.15 0.29 0.36 0.25 0.22 0.25 0.34 0.31 0.47 0.58 0.55 0.55 0.49 0.33 0.43 0.55 0.47 0.52 0.51 0.52 0.56 0.51 0.51
0.00 0.00 0.00 0.00 0.00 0.00 0.00 0.00 0.00 0.00 0.00 0.00 0.00 0.00 0.00 0.01 0.02 0.04 0.08 0.23 0.22 0.12 0.03 0.06 0.08 0.10 0.23 0.37 0.52 0.64 0.73 0.86 0.68 0.48 0.46 0.57 0.34 0.38 0.39 0.43 0.55 0.41 0.35
0.00 0.00 0.00 0.00 0.00 0.00 0.00 0.00 0.00 0.00 0.00 0.00 0.00 0.00 0.03 0.03 0.02 0.10 0.23 0.28 0.06 0.01 0.02 0.05 0.14 0.16 0.19 0.20 0.28 0.60 0.82 0.79 0.73 0.47 0.38 0.46 0.37 0.36 0.34 0.33 0.43 0.47 0.44
0.00 0.00 0.00 0.00 0.00 0.00 0.00 0.00 0.00 0.00 0.00 0.00 0.02 0.02 0.02 0.02 0.06 0.29 0.16 0.04 0.08 0.04 0.11 0.08 0.03 0.02 0.04 0.11 0.23 0.32 0.69 1.21 0.89 0.71 0.39 0.66 0.54 0.44 0.65 0.36 0.43 0.53 0.45

GFSMA_prec_precacc_042.txt.gz
Total_Precipitation_Accumulation
0.00 0.00 0.00 0.00 0.00 0.00 0.00 0.00 0.00 0.00 0.00 0.00 0.00 0.00 0.00 0.00 0.00 0.00 0.00 0.00 0.00 0.00 0.00 0.00 0.01 0.01 0.04 0.07 0.11 0.13 0.14 0.12 0.10 0.09 0.09 0.09 0.09 0.11 0.12 0.14 0.15 0.16 0.15
0.00 0.00 0.00 0.00 0.00 0.00 0.00 0.00 0.00 0.00 0.00 0.00 0.00 0.00 0.00 0.00 0.00 0.00 0.00 0.00 0.00 0.00 0.00 0.00 0.00 0.01 0.02 0.04 0.07 0.12 0.11 0.09 0.08 0.08 0.08 0.09 0.09 0.10 0.12 0.13 0.15 0.16 0.18
0.00 0.00 0.00 0.00 0.00 0.00 0.00 0.00 0.00 0.00 0.00 0.00 0.00 0.00 0.00 0.00 0.00 0.00 0.00 0.00 0.00 0.00 0.00 0.00 0.01 0.01 0.01 0.02 0.04 0.07 0.10 0.11 0.11 0.12 0.13 0.13 0.13 0.13 0.13 0.15 0.16 0.16 0.17
0.00 0.00 0.00 0.00 0.00 0.00 0.00 0.00 0.00 0.00 0.00 0.00 0.00 0.00 0.00 0.00 0.00 0.00 0.00 0.00 0.00 0.00 0.00 0.00 0.00 0.01 0.01 0.01 0.01 0.02 0.06 0.09 0.10 0.12 0.13 0.14 0.16 0.17 0.19 0.19 0.19 0.20 0.21
0.00 0.00 0.00 0.00 0.00 0.00 0.00 0.00 0.00 0.00 0.00 0.00 0.00 0.00 0.00 0.00 0.00 0.00 0.00 0.00 0.00 0.00 0.00 0.00 0.00 0.00 0.00 0.00 0.01 0.02 0.04 0.09 0.10 0.10 0.10 0.11 0.13 0.16 0.20 0.24 0.26 0.27 0.28
0.00 0.00 0.00 0.00 0.00 0.00 0.00 0.00 0.00 0.00 0.00 0.00 0.00 0.00 0.00 0.00 0.00 0.00 0.00 0.00 0.00 0.00 0.00 0.00 0.00 0.00 0.00 0.01 0.02 0.03 0.03 0.03 0.05 0.07 0.09 0.10 0.09 0.14 0.20 0.24 0.26 0.27 0.28
0.00 0.00 0.00 0.00 0.00 0.00 0.00 0.00 0.00 0.00 0.00 0.00 0.00 0.00 0.00 0.00 0.00 0.00 0.00 0.00 0.00 0.00 0.00 0.00 0.00 0.00 0.00 0.01 0.02 0.01 0.01 0.01 0.02 0.05 0.10 0.10 0.11 0.14 0.17 0.20 0.23 0.29 0.35
0.00 0.00 0.00 0.00 0.00 0.00 0.00 0.00 0.00 0.00 0.00 0.00 0.01 0.03 0.02 0.00 0.00 0.00 0.00 0.00 0.00 0.00 0.00 0.00 0.00 0.00 0.00 0.00 0.00 0.01 0.01 0.01 0.01 0.02 0.08 0.11 0.12 0.14 0.17 0.19 0.23 0.28 0.33
0.00 0.00 0.00 0.00 0.00 0.00 0.00 0.00 0.00 0.00 0.01 0.01 0.01 0.05 0.08 0.04 0.02 0.00 0.00 0.00 0.00 0.00 0.00 0.00 0.00 0.00 0.00 0.00 0.00 0.00 0.00 0.00 0.00 0.01 0.04 0.11 0.13 0.14 0.17 0.21 0.24 0.30 0.38
0.00 0.00 0.00 0.00 0.00 0.00 0.00 0.00 0.01 0.01 0.03 0.03 0.02 0.02 0.05 0.06 0.10 0.08 0.01 0.01 0.00 0.00 0.00 0.00 0.00 0.00 0.00 0.00 0.00 0.00 0.01 0.03 0.05 0.06 0.06 0.11 0.17 0.21 0.27 0.31 0.36 0.42 0.46
0.00 0.00 0.00 0.00 0.00 0.00 0.01 0.01 0.02 0.04 0.04 0.04 0.04 0.04 0.06 0.07 0.09 0.14 0.10 0.02 0.01 0.00 0.00 0.00 0.00 0.00 0.00 0.00 0.01 0.01 0.03 0.05 0.07 0.09 0.12 0.19 0.25 0.28 0.39 0.50 0.59 0.65 0.66
0.00 0.00 0.00 0.00 0.00 0.00 0.01 0.02 0.03 0.04 0.08 0.11 0.10 0.09 0.10 0.13 0.10 0.11 0.11 0.07 0.04 0.01 0.01 0.00 0.00 0.00 0.00 0.00 0.01 0.03 0.04 0.03 0.06 0.07 0.14 0.24 0.35 0.47 0.61 0.77 0.86 0.90 0.97
0.00 0.00 0.00 0.00 0.00 0.00 0.01 0.01 0.03 0.05 0.07 0.11 0.13 0.12 0.12 0.11 0.11 0.14 0.18 0.13 0.12 0.05 0.05 0.02 0.01 0.02 0.02 0.03 0.02 0.03 0.02 0.02 0.04 0.04 0.06 0.17 0.28 0.33 0.37 0.44 0.60 0.74 0.93
0.00 0.00 0.00 0.00 0.00 0.00 0.00 0.01 0.03 0.06 0.08 0.10 0.12 0.13 0.15 0.12 0.14 0.15 0.17 0.21 0.15 0.05 0.03 0.02 0.00 0.01 0.03 0.04 0.03 0.03 0.02 0.00 0.01 0.02 0.02 0.03 0.10 0.17 0.21 0.25 0.33 0.41 0.51
0.00 0.00 0.00 0.00 0.00 0.00 0.00 0.00 0.01 0.02 0.04 0.06 0.08 0.10 0.15 0.13 0.14 0.13 0.15 0.23 0.29 0.18 0.05 0.02 0.01 0.01 0.03 0.03 0.02 0.04 0.04 0.02 0.03 0.04 0.05 0.04 0.04 0.08 0.14 0.19 0.24 0.34 0.45
0.00 0.00 0.00 0.00 0.00 0.00 0.00 0.00 0.00 0.00 0.01 0.02 0.04 0.06 0.08 0.10 0.12 0.14 0.15 0.15 0.21 0.29 0.16 0.02 0.02 0.04 0.05 0.03 0.02 0.06 0.07 0.11 0.11 0.10 0.09 0.09 0.09 0.13 0.16 0.18 0.22 0.28 0.34
0.00 0.00 0.00 0.00 0.00 0.00 0.00 0.00 0.00 0.00 0.00 0.00 0.02 0.04 0.06 0.08 0.09 0.08 0.09 0.10 0.11 0.19 0.24 0.04 0.04 0.05 0.06 0.03 0.04 0.07 0.06 0.05 0.05 0.10 0.14 0.15 0.16 0.16 0.16 0.17 0.20 0.25 0.30
0.00 0.00 0.00 0.00 0.00 0.00 0.00 0.00 0.00 0.00 0.00 0.00 0.00 0.01 0.02 0.03 0.05 0.09 0.11 0.10 0.12 0.14 0.24 0.16 0.02 0.03 0.03 0.03 0.03 0.06 0.08 0.11 0.11 0.10 0.12 0.12 0.15 0.18 0.19 0.18 0.18 0.20 0.22
0.00 0.00 0.00 0.00 0.00 0.00 0.00 0.00 0.00 0.00 0.00 0.00 0.00 0.00 0.00 0.00 0.00 0.02 0.06 0.09 0.12 0.16 0.24 0.31 0.14 0.07 0.07 0.06 0.07 0.09 0.11 0.12 0.12 0.15 0.18 0.19 0.22 0.22 0.23 0.25 0.30 0.38 0.43
0.00 0.00 0.00 0.00 0.00 0.00 0.00 0.00 0.00 0.00 0.00 0.00 0.00 0.00 0.00 0.00 0.00 0.00 0.03 0.09 0.16 0.19 0.21 0.24 0.25 0.21 0.15 0.13 0.17 0.14 0.12 0.11 0.13 0.16 0.22 0.28 0.36 0.43 0.45 0.48 0.48 0.44 0.40
0.00 0.00 0.00 0.00 0.00 0.00 0.00 0.00 0.00 0.00 0.00 0.00 0.00 0.00 0.00 0.00 0.00 0.01 0.06 0.08 0.16 0.21 0.33 0.50 0.49 0.42 0.40 0.33 0.26 0.26 0.37 0.38 0.39 0.37 0.35 0.36 0.42 0.47 0.44 0.45 0.47 0.45 0.46
0.00 0.00 0.00 0.00 0.00 0.00 0.00 0.00 0.00 0.00 0.00 0.00 0.00 0.00 0.00 0.00 0.00 0.02 0.06 0.10 0.14 0.29 0.46 0.60 0.61 0.52 0.39 0.40 0.42 0.51 0.66 0.76 0.70 0.33 0.29 0.38 0.39 0.43 0.43 0.46 0.50 0.46 0.44
0.00 0.00 0.00 0.00 0.00 0.00 0.00 0.00 0.00 0.00 0.00 0.00 0.00 0.00 0.00 0.00 0.02 0.02 0.02 0.08 0.17 0.33 0.38 0.26 0.22 0.25 0.34 0.31 0.52 0.62 0.56 0.56 0.50 0.34 0.43 0.55 0.47 0.52 0.51 0.52 0.56 0.51 0.51
0.00 0.00 0.00 0.00 0.00 0.00 0.00 0.00 0.00 0.00 0.00 0.00 0.00 0.00 0.00 0.01 0.02 0.04 0.09 0.28 0.25 0.12 0.03 0.06 0.08 0.11 0.24 0.40 0.54 0.65 0.75 0.87 0.68 0.48 0.46 0.58 0.34 0.38 0.39 0.43 0.55 0.41 0.35
0.00 0.00 0.00 0.00 0.00 0.00 0.00 0.00 0.00 0.00 0.00 0.00 0.00 0.00 0.03 0.03 0.02 0.11 0.26 0.31 0.06 0.01 0.02 0.05 0.15 0.17 0.19 0.20 0.28 0.62 0.84 0.81 0.75 0.47 0.38 0.46 0.37 0.36 0.34 0.33 0.43 0.47 0.44
0.00 0.00 0.00 0.00 0.00 0.00 0.00 0.00 0.00 0.00 0.00 0.00 0.02 0.02 0.02 0.03 0.07 0.31 0.17 0.04 0.08 0.04 0.14 0.10 0.03 0.02 0.04 0.11 0.23 0.32 0.71 1.28 0.92 0.74 0.39 0.69 0.56 0.45 0.70 0.36 0.43 0.53 0.45

GFSMA_prec_precacc_045.txt.gz
Total_Precipitation_Accumulation
0.00 0.00 0.00 0.00 0.00 0.00 0.00 0.00 0.00 0.00 0.00 0.00 0.00 0.00 0.00 0.00 0.00 0.00 0.00 0.00 0.00 0.00 0.00 0.00 0.01 0.01 0.04 0.07 0.11 0.13 0.14 0.12 0.10 0.09 0.09 0.09 0.09 0.11 0.12 0.14 0.15 0.16 0.15
0.00 0.00 0.00 0.00 0.00 0.00 0.00 0.00 0.00 0.00 0.00 0.00 0.00 0.00 0.00 0.00 0.00 0.00 0.00 0.00 0.00 0.00 0.00 0.00 0.00 0.01 0.02 0.04 0.07 0.12 0.11 0.09 0.08 0.08 0.08 0.09 0.09 0.10 0.12 0.13 0.15 0.16 0.18
0.00 0.00 0.00 0.00 0.00 0.00 0.00 0.00 0.00 0.00 0.00 0.00 0.00 0.00 0.00 0.00 0.00 0.00 0.00 0.00 0.00 0.00 0.00 0.00 0.01 0.01 0.01 0.02 0.04 0.07 0.10 0.11 0.11 0.12 0.13 0.13 0.13 0.13 0.13 0.15 0.16 0.16 0.17
0.00 0.00 0.00 0.00 0.00 0.00 0.00 0.00 0.00 0.00 0.00 0.00 0.00 0.00 0.00 0.00 0.00 0.00 0.00 0.00 0.00 0.00 0.00 0.00 0.00 0.01 0.01 0.01 0.01 0.02 0.06 0.09 0.10 0.12 0.13 0.14 0.16 0.17 0.19 0.19 0.19 0.20 0.21
0.00 0.00 0.00 0.00 0.00 0.00 0.00 0.00 0.00 0.00 0.00 0.00 0.00 0.00 0.00 0.00 0.00 0.00 0.00 0.00 0.00 0.00 0.00 0.00 0.00 0.00 0.00 0.00 0.01 0.02 0.04 0.09 0.10 0.10 0.10 0.11 0.13 0.16 0.20 0.24 0.26 0.27 0.28
0.00 0.00 0.00 0.00 0.00 0.00 0.00 0.00 0.00 0.00 0.00 0.00 0.00 0.00 0.00 0.00 0.00 0.00 0.00 0.00 0.00 0.00 0.00 0.00 0.00 0.00 0.00 0.01 0.02 0.03 0.03 0.03 0.05 0.07 0.09 0.10 0.09 0.14 0.20 0.24 0.26 0.27 0.28
0.00 0.00 0.00 0.00 0.00 0.00 0.00 0.00 0.00 0.00 0.00 0.00 0.00 0.00 0.00 0.00 0.00 0.00 0.00 0.00 0.00 0.00 0.00 0.00 0.00 0.00 0.00 0.01 0.02 0.01 0.01 0.01 0.02 0.05 0.10 0.10 0.11 0.14 0.17 0.20 0.23 0.29 0.35
0.05 0.01 0.00 0.00 0.00 0.00 0.00 0.00 0.00 0.00 0.00 0.00 0.01 0.03 0.02 0.00 0.00 0.00 0.00 0.00 0.00 0.00 0.00 0.00 0.00 0.00 0.00 0.00 0.00 0.01 0.01 0.01 0.01 0.02 0.08 0.11 0.12 0.14 0.17 0.19 0.23 0.28 0.33
0.07 0.02 0.01 0.00 0.00 0.00 0.00 0.00 0.00 0.00 0.01 0.01 0.01 0.05 0.08 0.04 0.02 0.00 0.00 0.00 0.00 0.00 0.00 0.00 0.00 0.00 0.00 0.00 0.00 0.00 0.00 0.00 0.00 0.01 0.04 0.11 0.13 0.14 0.17 0.21 0.24 0.30 0.38
0.03 0.01 0.00 0.00 0.00 0.00 0.00 0.00 0.01 0.01 0.03 0.03 0.02 0.02 0.05 0.06 0.10 0.08 0.01 0.01 0.00 0.00 0.00 0.00 0.00 0.00 0.00 0.00 0.00 0.00 0.01 0.03 0.05 0.06 0.06 0.11 0.17 0.21 0.27 0.31 0.36 0.42 0.46
0.01 0.00 0.00 0.00 0.00 0.00 0.01 0.01 0.02 0.04 0.04 0.04 0.04 0.04 0.06 0.07 0.09 0.14 0.10 0.02 0.01 0.00 0.00 0.00 0.00 0.00 0.00 0.00 0.01 0.01 0.03 0.05 0.07 0.09 0.12 0.19 0.25 0.28 0.39 0.50 0.59 0.65 0.66
0.01 0.00 0.00 0.00 0.00 0.00 0.01 0.02 0.03 0.04 0.08 0.11 0.10 0.09 0.10 0.13 0.10 0.11 0.11 0.07 0.04 0.01 0.01 0.00 0.00 0.00 0.00 0.00 0.01 0.03 0.04 0.03 0.06 0.07 0.14 0.24 0.35 0.47 0.61 0.77 0.86 0.90 0.97
0.01 0.00 0.00 0.00 0.00 0.00 0.01 0.01 0.03 0.05 0.07 0.11 0.13 0.12 0.12 0.11 0.11 0.14 0.18 0.13 0.12 0.05 0.05 0.02 0.01 0.02 0.02 0.03 0.02 0.03 0.02 0.02 0.04 0.04 0.06 0.17 0.28 0.33 0.37 0.44 0.60 0.74 0.94
0.00 0.00 0.00 0.00 0.00 0.00 0.00 0.01 0.03 0.06 0.08 0.10 0.12 0.13 0.15 0.12 0.14 0.15 0.17 0.21 0.15 0.05 0.03 0.02 0.00 0.01 0.03 0.04 0.03 0.03 0.02 0.00 0.01 0.02 0.02 0.03 0.10 0.17 0.21 0.25 0.33 0.41 0.51
0.00 0.00 0.00 0.00 0.00 0.00 0.00 0.00 0.01 0.02 0.04 0.06 0.08 0.10 0.15 0.13 0.14 0.13 0.15 0.23 0.29 0.18 0.05 0.02 0.01 0.01 0.03 0.03 0.02 0.04 0.04 0.02 0.03 0.04 0.05 0.04 0.04 0.08 0.14 0.19 0.24 0.34 0.46
0.00 0.00 0.00 0.00 0.00 0.00 0.00 0.00 0.00 0.00 0.01 0.02 0.04 0.06 0.08 0.10 0.12 0.14 0.15 0.15 0.21 0.29 0.16 0.02 0.02 0.04 0.05 0.03 0.02 0.06 0.07 0.11 0.11 0.10 0.09 0.09 0.09 0.13 0.16 0.18 0.22 0.28 0.34
0.00 0.00 0.00 0.00 0.00 0.00 0.00 0.00 0.00 0.00 0.00 0.00 0.02 0.04 0.06 0.08 0.09 0.08 0.09 0.10 0.11 0.19 0.24 0.04 0.04 0.05 0.06 0.03 0.04 0.07 0.06 0.05 0.05 0.10 0.14 0.15 0.16 0.16 0.16 0.17 0.20 0.25 0.30
0.00 0.00 0.00 0.00 0.00 0.00 0.00 0.00 0.00 0.00 0.00 0.00 0.00 0.01 0.02 0.03 0.05 0.09 0.11 0.10 0.12 0.14 0.24 0.16 0.02 0.03 0.03 0.03 0.03 0.06 0.08 0.11 0.11 0.10 0.12 0.12 0.15 0.18 0.19 0.19 0.18 0.20 0.23
0.00 0.00 0.00 0.00 0.00 0.00 0.00 0.00 0.00 0.00 0.00 0.00 0.00 0.00 0.00 0.00 0.00 0.02 0.06 0.09 0.12 0.16 0.24 0.31 0.14 0.07 0.07 0.06 0.07 0.09 0.11 0.12 0.12 0.15 0.18 0.19 0.22 0.22 0.23 0.25 0.30 0.38 0.43
0.00 0.00 0.00 0.00 0.00 0.00 0.00 0.00 0.00 0.00 0.00 0.00 0.00 0.00 0.00 0.00 0.00 0.00 0.03 0.09 0.16 0.19 0.21 0.24 0.25 0.21 0.15 0.13 0.17 0.14 0.12 0.11 0.13 0.16 0.22 0.28 0.36 0.43 0.45 0.48 0.48 0.44 0.40
0.00 0.00 0.00 0.00 0.00 0.00 0.00 0.00 0.00 0.00 0.00 0.00 0.00 0.00 0.00 0.00 0.00 0.01 0.06 0.08 0.16 0.21 0.33 0.50 0.50 0.43 0.40 0.33 0.26 0.26 0.37 0.38 0.39 0.37 0.35 0.36 0.42 0.47 0.44 0.45 0.47 0.45 0.46
0.00 0.00 0.00 0.00 0.00 0.00 0.00 0.00 0.00 0.00 0.00 0.00 0.00 0.00 0.00 0.00 0.00 0.02 0.06 0.10 0.14 0.30 0.48 0.63 0.63 0.53 0.39 0.40 0.42 0.51 0.66 0.77 0.70 0.33 0.29 0.38 0.39 0.43 0.43 0.46 0.50 0.46 0.44
0.00 0.00 0.00 0.00 0.00 0.00 0.00 0.00 0.00 0.00 0.00 0.00 0.00 0.00 0.00 0.00 0.02 0.02 0.02 0.08 0.18 0.34 0.40 0.27 0.23 0.25 0.34 0.31 0.52 0.63 0.57 0.57 0.51 0.34 0.43 0.55 0.47 0.52 0.51 0.52 0.56 0.51 0.51
0.00 0.00 0.00 0.00 0.00 0.00 0.00 0.00 0.00 0.00 0.00 0.00 0.00 0.00 0.00 0.01 0.02 0.04 0.09 0.29 0.26 0.13 0.04 0.06 0.08 0.11 0.24 0.40 0.56 0.67 0.75 0.87 0.68 0.48 0.46 0.58 0.34 0.38 0.39 0.43 0.55 0.41 0.35
0.00 0.00 0.00 0.00 0.00 0.00 0.00 0.00 0.00 0.00 0.00 0.00 0.00 0.00 0.03 0.03 0.02 0.11 0.27 0.32 0.07 0.01 0.02 0.05 0.15 0.17 0.19 0.21 0.28 0.62 0.85 0.82 0.75 0.47 0.38 0.46 0.37 0.36 0.34 0.33 0.43 0.47 0.44
0.00 0.00 0.00 0.00 0.00 0.00 0.00 0.00 0.00 0.00 0.00 0.00 0.02 0.02 0.02 0.03 0.07 0.32 0.18 0.05 0.08 0.04 0.14 0.11 0.03 0.02 0.04 0.11 0.23 0.32 0.71 1.31 0.92 0.75 0.39 0.70 0.56 0.46 0.71 0.36 0.43 0.53 0.45

GFSMA_prec_precacc_048.txt.gz
Total_Precipitation_Accumulation
0.00 0.00 0.00 0.00 0.00 0.00 0.00 0.00 0.00 0.00 0.00 0.00 0.00 0.00 0.00 0.00 0.00 0.00 0.00 0.00 0.00 0.00 0.00 0.00 0.01 0.01 0.04 0.07 0.11 0.13 0.14 0.12 0.10 0.09 0.09 0.09 0.09 0.11 0.12 0.14 0.15 0.16 0.15
0.00 0.00 0.00 0.00 0.00 0.00 0.00 0.00 0.00 0.00 0.00 0.00 0.00 0.00 0.00 0.00 0.00 0.00 0.00 0.00 0.00 0.00 0.00 0.00 0.00 0.01 0.02 0.04 0.07 0.12 0.11 0.09 0.08 0.08 0.08 0.09 0.09 0.10 0.12 0.13 0.15 0.16 0.18
0.00 0.00 0.00 0.00 0.00 0.00 0.00 0.00 0.00 0.00 0.00 0.00 0.00 0.00 0.00 0.00 0.00 0.00 0.00 0.00 0.00 0.00 0.00 0.00 0.01 0.01 0.01 0.02 0.04 0.07 0.10 0.11 0.11 0.12 0.13 0.13 0.13 0.13 0.13 0.15 0.16 0.16 0.17
0.00 0.00 0.00 0.00 0.00 0.00 0.00 0.00 0.00 0.00 0.00 0.00 0.00 0.00 0.00 0.00 0.00 0.00 0.00 0.00 0.00 0.00 0.00 0.00 0.00 0.01 0.01 0.01 0.01 0.02 0.06 0.09 0.10 0.12 0.13 0.14 0.16 0.17 0.19 0.19 0.19 0.20 0.21
0.00 0.00 0.00 0.00 0.00 0.00 0.00 0.00 0.00 0.00 0.00 0.00 0.00 0.00 0.00 0.00 0.00 0.00 0.00 0.00 0.00 0.00 0.00 0.00 0.00 0.00 0.00 0.00 0.01 0.02 0.04 0.09 0.10 0.10 0.10 0.11 0.13 0.16 0.20 0.24 0.26 0.27 0.28
0.00 0.00 0.00 0.00 0.00 0.00 0.00 0.00 0.00 0.00 0.00 0.00 0.00 0.00 0.00 0.00 0.00 0.00 0.00 0.00 0.00 0.00 0.00 0.00 0.00 0.00 0.00 0.01 0.02 0.03 0.03 0.03 0.05 0.07 0.09 0.10 0.09 0.14 0.20 0.24 0.26 0.27 0.28
0.00 0.00 0.00 0.00 0.00 0.00 0.00 0.00 0.00 0.00 0.00 0.00 0.00 0.00 0.00 0.00 0.00 0.00 0.00 0.00 0.00 0.00 0.00 0.00 0.00 0.00 0.00 0.01 0.02 0.01 0.01 0.01 0.02 0.05 0.10 0.10 0.11 0.14 0.17 0.20 0.23 0.29 0.35
0.07 0.02 0.00 0.00 0.00 0.00 0.00 0.00 0.00 0.00 0.00 0.00 0.01 0.03 0.02 0.00 0.00 0.00 0.00 0.00 0.00 0.00 0.00 0.00 0.00 0.00 0.00 0.00 0.00 0.01 0.01 0.01 0.01 0.02 0.08 0.11 0.12 0.14 0.17 0.19 0.23 0.28 0.33
0.11 0.08 0.05 0.02 0.00 0.00 0.00 0.00 0.00 0.00 0.01 0.01 0.01 0.05 0.08 0.04 0.02 0.00 0.00 0.00 0.00 0.00 0.00 0.00 0.00 0.00 0.00 0.00 0.00 0.00 0.00 0.00 0.00 0.01 0.04 0.11 0.13 0.14 0.17 0.21 0.24 0.30 0.38
0.06 0.05 0.03 0.01 0.00 0.00 0.00 0.00 0.01 0.01 0.03 0.03 0.02 0.02 0.05 0.06 0.10 0.08 0.01 0.01 0.00 0.00 0.00 0.00 0.00 0.00 0.00 0.00 0.00 0.00 0.01 0.03 0.05 0.06 0.06 0.11 0.17 0.21 0.27 0.31 0.36 0.42 0.46
0.04 0.01 0.00 0.00 0.00 0.00 0.01 0.01 0.02 0.04 0.04 0.04 0.04 0.04 0.06 0.07 0.09 0.14 0.10 0.02 0.01 0.00 0.00 0.00 0.00 0.00 0.00 0.00 0.01 0.01 0.03 0.05 0.07 0.09 0.12 0.19 0.25 0.28 0.39 0.50 0.60 0.65 0.67
0.03 0.01 0.00 0.00 0.00 0.00 0.01 0.02 0.03 0.04 0.08 0.11 0.10 0.09 0.10 0.13 0.10 0.11 0.11 0.07 0.04 0.01 0.01 0.00 0.00 0.00 0.00 0.00 0.01 0.03 0.04 0.03 0.06 0.07 0.14 0.24 0.35 0.47 0.61 0.77 0.86 0.90 0.98
0.02 0.01 0.01 0.00 0.00 0.00 0.01 0.01 0.03 0.05 0.07 0.11 0.13 0.12 0.12 0.11 0.11 0.14 0.18 0.13 0.12 0.05 0.05 0.02 0.01 0.02 0.02 0.03 0.02 0.03 0.02 0.02 0.04 0.04 0.06 0.17 0.28 0.33 0.37 0.44 0.60 0.74 0.95
0.02 0.01 0.00 0.00 0.00 0.00 0.00 0.01 0.03 0.06 0.08 0.10 0.12 0.13 0.15 0.12 0.14 0.15 0.17 0.21 0.15 0.05 0.03 0.02 0.00 0.01 0.03 0.04 0.03 0.03 0.02 0.00 0.01 0.02 0.02 0.03 0.10 0.17 0.21 0.25 0.33 0.42 0.52
0.01 0.00 0.00 0.00 0.00 0.00 0.00 0.00 0.01 0.02 0.04 0.06 0.08 0.10 0.15 0.13 0.14 0.13 0.15 0.23 0.29 0.18 0.05 0.02 0.01 0.01 0.03 0.03 0.02 0.04 0.04 0.02 0.03 0.04 0.05 0.04 0.04 0.08 0.14 0.19 0.24 0.34 0.46
0.00 0.00 0.00 0.00 0.00 0.00 0.00 0.00 0.00 0.00 0.01 0.02 0.04 0.06 0.08 0.10 0.12 0.14 0.15 0.15 0.21 0.29 0.16 0.02 0.02 0.04 0.05 0.03 0.02 0.06 0.07 0.11 0.11 0.10 0.09 0.09 0.09 0.13 0.16 0.18 0.22 0.28 0.35
0.00 0.00 0.00 0.00 0.00 0.00 0.00 0.00 0.00 0.00 0.00 0.00 0.02 0.04 0.06 0.08 0.09 0.08 0.09 0.10 0.11 0.19 0.24 0.04 0.04 0.05 0.06 0.03 0.04 0.07 0.06 0.05 0.05 0.10 0.14 0.15 0.16 0.16 0.16 0.17 0.20 0.25 0.30
0.00 0.00 0.00 0.00 0.00 0.00 0.00 0.00 0.00 0.00 0.00 0.00 0.00 0.01 0.02 0.03 0.05 0.09 0.11 0.10 0.12 0.14 0.24 0.16 0.02 0.03 0.03 0.03 0.03 0.06 0.08 0.11 0.11 0.10 0.12 0.12 0.15 0.18 0.19 0.19 0.18 0.20 0.23
0.00 0.00 0.00 0.00 0.00 0.00 0.00 0.00 0.00 0.00 0.00 0.00 0.00 0.00 0.00 0.00 0.00 0.02 0.06 0.09 0.12 0.16 0.24 0.31 0.14 0.07 0.07 0.06 0.07 0.09 0.11 0.12 0.12 0.15 0.18 0.19 0.22 0.22 0.23 0.25 0.30 0.38 0.43
0.00 0.00 0.00 0.00 0.00 0.00 0.00 0.00 0.00 0.00 0.00 0.00 0.00 0.00 0.00 0.00 0.00 0.00 0.03 0.09 0.16 0.19 0.21 0.24 0.25 0.21 0.15 0.14 0.18 0.14 0.12 0.11 0.13 0.16 0.22 0.28 0.36 0.43 0.45 0.48 0.48 0.44 0.40
0.00 0.00 0.00 0.00 0.00 0.00 0.00 0.00 0.00 0.00 0.00 0.00 0.00 0.00 0.00 0.00 0.00 0.01 0.06 0.08 0.16 0.21 0.33 0.51 0.50 0.44 0.41 0.33 0.26 0.26 0.37 0.38 0.39 0.37 0.35 0.36 0.42 0.47 0.44 0.45 0.47 0.45 0.46
0.00 0.00 0.00 0.00 0.00 0.00 0.00 0.00 0.00 0.00 0.00 0.00 0.00 0.00 0.00 0.00 0.00 0.02 0.06 0.10 0.14 0.30 0.48 0.64 0.64 0.54 0.39 0.40 0.42 0.51 0.66 0.78 0.71 0.33 0.29 0.38 0.39 0.43 0.43 0.46 0.50 0.46 0.44
0.00 0.00 0.00 0.00 0.00 0.00 0.00 0.00 0.00 0.00 0.00 0.00 0.00 0.00 0.00 0.00 0.02 0.02 0.02 0.08 0.18 0.34 0.40 0.28 0.24 0.25 0.34 0.31 0.52 0.63 0.58 0.58 0.51 0.34 0.43 0.56 0.47 0.52 0.51 0.52 0.56 0.51 0.51
0.00 0.00 0.00 0.00 0.00 0.00 0.00 0.00 0.00 0.00 0.00 0.00 0.00 0.00 0.00 0.01 0.02 0.04 0.09 0.29 0.26 0.13 0.04 0.06 0.08 0.11 0.24 0.40 0.57 0.72 0.77 0.87 0.68 0.48 0.46 0.58 0.34 0.38 0.39 0.43 0.55 0.41 0.35
0.00 0.00 0.00 0.00 0.00 0.00 0.00 0.00 0.00 0.00 0.00 0.00 0.00 0.00 0.03 0.03 0.02 0.11 0.27 0.32 0.07 0.01 0.02 0.05 0.15 0.17 0.19 0.21 0.28 0.62 0.85 0.82 0.75 0.47 0.38 0.46 0.37 0.36 0.34 0.33 0.43 0.47 0.44
0.00 0.00 0.00 0.00 0.00 0.00 0.00 0.00 0.00 0.00 0.00 0.00 0.02 0.02 0.02 0.03 0.07 0.32 0.18 0.05 0.08 0.04 0.14 0.11 0.03 0.02 0.04 0.11 0.23 0.32 0.72 1.35 0.94 0.76 0.39 0.71 0.57 0.46 0.73 0.36 0.43 0.53 0.45